Observation data for Caprock Canyons on 02/18/2017      Previous  Date  Next       Current Mesonet Observations  Soil Data  Daily Summary Page  Observations in Plain Language
KQU1 180601Z 31004KT 06/02 A297 RMK A01 T00640024  RH  075%=      5-min Rain = 0
KQU1 180602Z 32004KT 06/02 A297 RMK A01 T00620023  RH  076%=      5-min Rain = 0
KQU1 180603Z 32004KT 06/02 A297 RMK A01 T00610022  RH  076%=      5-min Rain = 0
KQU1 180604Z 30005KT 06/02 A297 RMK A01 T00600022  RH  076%=      5-min Rain = 0
KQU1 180605Z 30005KT 06/02 A297 RMK A01 T00580022  RH  077%=      5-min Rain = 0
KQU1 180606Z 29005KT 06/02 A297 RMK A01 T00570023  RH  079%=      5-min Rain = 0
KQU1 180607Z 29005KT 06/02 A297 RMK A01 T00550023  RH  080%=      5-min Rain = 0
KQU1 180608Z 30005KT 05/02 A297 RMK A01 T00540023  RH  080%=      5-min Rain = 0
KQU1 180609Z 30005KT 05/02 A297 RMK A01 T00540023  RH  081%=      5-min Rain = 0
KQU1 180610Z 31005KT 05/02 A297 RMK A01 T00540024  RH  081%=      5-min Rain = 0
KQU1 180611Z 31004KT 05/02 A297 RMK A01 T00540024  RH  081%=      5-min Rain = 0
KQU1 180612Z 30004KT 06/02 A297 RMK A01 T00550023  RH  080%=      5-min Rain = 0
KQU1 180613Z 31004KT 06/02 A2971 RMK A01 T00550022  RH  079%=      5-min Rain = 0
KQU1 180614Z 30005KT 06/02 A2971 RMK A01 T00550022  RH  079%=      5-min Rain = 0
KQU1 180615Z 31005KT 05/02 A2971 RMK A01 T00530023  RH  081%=      5-min Rain = 0
KQU1 180616Z 31005KT 05/02 A2971 RMK A01 T00530023  RH  081%=      5-min Rain = 0
KQU1 180617Z 31005KT 05/02 A2971 RMK A01 T00520022  RH  081%=      5-min Rain = 0
KQU1 180618Z 31005KT 05/02 A2971 RMK A01 T00510022  RH  081%=      5-min Rain = 0
KQU1 180619Z 31005KT 05/02 A2971 RMK A01 T00510022  RH  081%=      5-min Rain = 0
KQU1 180620Z 31005KT 05/02 A297 RMK A01 T00510022  RH  081%=      5-min Rain = 0
KQU1 180621Z 31005KT 05/02 A297 RMK A01 T00520023  RH  081%=      5-min Rain = 0
KQU1 180622Z 31005KT 05/02 A297 RMK A01 T00520023  RH  081%=      5-min Rain = 0
KQU1 180623Z 32005KT 05/02 A297 RMK A01 T00520023  RH  081%=      5-min Rain = 0
KQU1 180624Z 31006KT 05/02 A297 RMK A01 T00530023  RH  081%=      5-min Rain = 0
KQU1 180625Z 31006KT 05/02 A297 RMK A01 T00530022  RH  081%=      5-min Rain = 0
KQU1 180626Z 31005KT 05/02 A297 RMK A01 T00530022  RH  081%=      5-min Rain = 0
KQU1 180627Z 32005KT 05/02 A297 RMK A01 T00530022  RH  080%=      5-min Rain = 0
KQU1 180628Z 32005KT 05/02 A297 RMK A01 T00530022  RH  080%=      5-min Rain = 0
KQU1 180629Z 32005KT 05/02 A297 RMK A01 T00530023  RH  081%=      5-min Rain = 0
KQU1 180630Z 32005KT 05/02 A297 RMK A01 T00530023  RH  081%=      5-min Rain = 0
KQU1 180631Z 32005KT 05/02 A297 RMK A01 T00530023  RH  081%=      5-min Rain = 0
KQU1 180632Z 30005KT 05/02 A297 RMK A01 T00530023  RH  081%=      5-min Rain = 0
KQU1 180633Z 30005KT 05/02 A297 RMK A01 T00520022  RH  081%=      5-min Rain = 0
KQU1 180634Z 30006KT 05/02 A297 RMK A01 T00520022  RH  081%=      5-min Rain = 0
KQU1 180635Z 30006KT 05/02 A297 RMK A01 T00510022  RH  081%=      5-min Rain = 0
KQU1 180636Z 30006KT 05/02 A297 RMK A01 T00510023  RH  082%=      5-min Rain = 0
KQU1 180637Z 30006KT 05/02 A297 RMK A01 T00520023  RH  082%=      5-min Rain = 0
KQU1 180638Z 30005KT 05/02 A2971 RMK A01 T00520023  RH  082%=      5-min Rain = 0
KQU1 180639Z 31005KT 05/02 A2971 RMK A01 T00520023  RH  082%=      5-min Rain = 0
KQU1 180640Z 32005KT 05/02 A2971 RMK A01 T00520023  RH  081%=      5-min Rain = 0
KQU1 180641Z 32005KT 05/02 A2971 RMK A01 T00520022  RH  081%=      5-min Rain = 0
KQU1 180642Z 32004KT 05/02 A2971 RMK A01 T00510022  RH  081%=      5-min Rain = 0
KQU1 180643Z 32004KT 05/02 A2971 RMK A01 T00500022  RH  082%=      5-min Rain = 0
KQU1 180644Z 32004KT 05/02 A2971 RMK A01 T00500021  RH  082%=      5-min Rain = 0
KQU1 180645Z 32005KT 05/02 A2971 RMK A01 T00490021  RH  082%=      5-min Rain = 0
KQU1 180646Z 33005KT 05/02 A2971 RMK A01 T00480020  RH  082%=      5-min Rain = 0
KQU1 180647Z 32005KT 05/02 A2971 RMK A01 T00470020  RH  083%=      5-min Rain = 0
KQU1 180648Z 32005KT 05/02 A2971 RMK A01 T00460020  RH  083%=      5-min Rain = 0
KQU1 180649Z 32005KT 05/02 A2971 RMK A01 T00450021  RH  084%=      5-min Rain = 0
KQU1 180650Z 31005KT 05/02 A2971 RMK A01 T00450022  RH  085%=      5-min Rain = 0
KQU1 180651Z 31005KT 05/02 A2971 RMK A01 T00450022  RH  085%=      5-min Rain = 0
KQU1 180652Z 32004KT 05/02 A2971 RMK A01 T00460022  RH  085%=      5-min Rain = 0
KQU1 180653Z 31005KT 05/02 A2971 RMK A01 T00460022  RH  084%=      5-min Rain = 0
KQU1 180654Z 31005KT 05/02 A2971 RMK A01 T00460022  RH  085%=      5-min Rain = 0
KQU1 180655Z 30006KT 05/02 A2971 RMK A01 T00450022  RH  085%=      5-min Rain = 0
KQU1 180656Z 30006KT 05/02 A2971 RMK A01 T00450022  RH  085%=      5-min Rain = 0
KQU1 180657Z 29006KT 05/02 A2971 RMK A01 T00450022  RH  085%=      5-min Rain = 0
KQU1 180658Z 28007KT 04/02 A2971 RMK A01 T00440022  RH  086%=      5-min Rain = 0
KQU1 180659Z 29007KT 04/02 A2971 RMK A01 T00440023  RH  086%=      5-min Rain = 0
KQU1 180700Z 29006KT 04/02 A2971 RMK A01 T00440023  RH  086%=      5-min Rain = 0
KQU1 180701Z 30006KT 04/02 A2971 RMK A01 T00440022  RH  086%=      5-min Rain = 0
KQU1 180702Z 30006KT 04/02 A2971 RMK A01 T00440022  RH  086%=      5-min Rain = 0
KQU1 180703Z 30005KT 04/02 A2971 RMK A01 T00440022  RH  086%=      5-min Rain = 0
KQU1 180704Z 30005KT 04/02 A2971 RMK A01 T00440022  RH  086%=      5-min Rain = 0
KQU1 180705Z 30005KT 04/02 A2971 RMK A01 T00440022  RH  085%=      5-min Rain = 0
KQU1 180706Z 30005KT 04/02 A2971 RMK A01 T00430021  RH  086%=      5-min Rain = 0
KQU1 180707Z 31005KT 04/02 A297 RMK A01 T00430021  RH  086%=      5-min Rain = 0
KQU1 180708Z 31006KT 04/02 A297 RMK A01 T00420021  RH  086%=      5-min Rain = 0
KQU1 180709Z 31006KT 04/02 A297 RMK A01 T00420021  RH  087%=      5-min Rain = 0
KQU1 180710Z 31006KT 04/02 A2971 RMK A01 T00420021  RH  086%=      5-min Rain = 0
KQU1 180711Z 31006KT 04/02 A2971 RMK A01 T00430022  RH  086%=      5-min Rain = 0
KQU1 180712Z 31006KT 04/02 A2971 RMK A01 T00440021  RH  085%=      5-min Rain = 0
KQU1 180713Z 31006KT 04/02 A2971 RMK A01 T00440021  RH  085%=      5-min Rain = 0
KQU1 180714Z 30006KT 04/02 A2971 RMK A01 T00440021  RH  085%=      5-min Rain = 0
KQU1 180715Z 30006KT 05/02 A2971 RMK A01 T00450021  RH  084%=      5-min Rain = 0
KQU1 180716Z 30005KT 05/02 A2971 RMK A01 T00460020  RH  084%=      5-min Rain = 0
KQU1 180717Z 31005KT 05/02 A2971 RMK A01 T00460021  RH  083%=      5-min Rain = 0
KQU1 180718Z 31005KT 05/02 A2971 RMK A01 T00470021  RH  083%=      5-min Rain = 0
KQU1 180719Z 31005KT 05/02 A2971 RMK A01 T00470020  RH  083%=      5-min Rain = 0
KQU1 180720Z 31006KT 05/02 A297 RMK A01 T00460020  RH  083%=      5-min Rain = 0
KQU1 180721Z 32006KT 05/02 A297 RMK A01 T00460020  RH  083%=      5-min Rain = 0
KQU1 180722Z 32005KT 05/02 A297 RMK A01 T00460020  RH  083%=      5-min Rain = 0
KQU1 180723Z 32006KT 05/02 A297 RMK A01 T00470020  RH  083%=      5-min Rain = 0
KQU1 180724Z 32006KT 05/02 A297 RMK A01 T00470020  RH  083%=      5-min Rain = 0
KQU1 180725Z 32006KT 05/02 A297 RMK A01 T00470020  RH  083%=      5-min Rain = 0
KQU1 180726Z 32006KT 05/02 A2971 RMK A01 T00470020  RH  083%=      5-min Rain = 0
KQU1 180727Z 32006KT 05/02 A2971 RMK A01 T00470020  RH  083%=      5-min Rain = 0
KQU1 180728Z 32006KT 05/02 A2971 RMK A01 T00480021  RH  083%=      5-min Rain = 0
KQU1 180729Z 32006KT 05/02 A2971 RMK A01 T00480021  RH  083%=      5-min Rain = 0
KQU1 180730Z 32006KT 05/02 A2971 RMK A01 T00480021  RH  082%=      5-min Rain = 0
KQU1 180731Z 32006KT 05/02 A2971 RMK A01 T00480021  RH  082%=      5-min Rain = 0
KQU1 180732Z 32006KT 05/02 A2971 RMK A01 T00480020  RH  082%=      5-min Rain = 0
KQU1 180733Z 31007KT 05/02 A2971 RMK A01 T00480020  RH  082%=      5-min Rain = 0
KQU1 180734Z 31007KT 05/02 A2971 RMK A01 T00470020  RH  082%=      5-min Rain = 0
KQU1 180735Z 31006KT 05/02 A2971 RMK A01 T00470020  RH  083%=      5-min Rain = 0
KQU1 180736Z 32006KT 05/02 A2971 RMK A01 T00460020  RH  083%=      5-min Rain = 0
KQU1 180737Z 32006KT 05/02 A2971 RMK A01 T00460020  RH  083%=      5-min Rain = 0
KQU1 180738Z 33006KT 05/02 A2971 RMK A01 T00470021  RH  083%=      5-min Rain = 0
KQU1 180739Z 32006KT 05/02 A2971 RMK A01 T00480021  RH  083%=      5-min Rain = 0
KQU1 180740Z 32005KT 05/02 A2971 RMK A01 T00480020  RH  082%=      5-min Rain = 0
KQU1 180741Z 32005KT 05/02 A2971 RMK A01 T00490020  RH  082%=      5-min Rain = 0
KQU1 180742Z 31006KT 05/02 A2971 RMK A01 T00490020  RH  082%=      5-min Rain = 0
KQU1 180743Z 30006KT 05/02 A2971 RMK A01 T00490020  RH  082%=      5-min Rain = 0
KQU1 180744Z 30006KT 05/02 A2971 RMK A01 T00480020  RH  082%=      5-min Rain = 0
KQU1 180745Z 30006KT 05/02 A2971 RMK A01 T00490021  RH  082%=      5-min Rain = 0
KQU1 180746Z 31006KT 05/02 A2971 RMK A01 T00490021  RH  082%=      5-min Rain = 0
KQU1 180747Z 32006KT 05/02 A2971 RMK A01 T00490021  RH  082%=      5-min Rain = 0
KQU1 180748Z 32006KT 05/02 A2971 RMK A01 T00500021  RH  082%=      5-min Rain = 0
KQU1 180749Z 32005KT 05/02 A2971 RMK A01 T00490020  RH  082%=      5-min Rain = 0
KQU1 180750Z 33005KT 05/02 A297 RMK A01 T00490020  RH  081%=      5-min Rain = 0
KQU1 180751Z 33005KT 05/02 A297 RMK A01 T00510020  RH  081%=      5-min Rain = 0
KQU1 180752Z 33005KT 05/02 A297 RMK A01 T00500019  RH  080%=      5-min Rain = 0
KQU1 180753Z 34005KT 05/02 A297 RMK A01 T00490018  RH  081%=      5-min Rain = 0
KQU1 180754Z 33006KT 05/02 A297 RMK A01 T00480018  RH  081%=      5-min Rain = 0
KQU1 180755Z 32006KT 05/02 A297 RMK A01 T00470018  RH  081%=      5-min Rain = 0
KQU1 180756Z 33005KT 05/02 A297 RMK A01 T00470018  RH  082%=      5-min Rain = 0
KQU1 180757Z 33005KT 05/02 A297 RMK A01 T00470019  RH  082%=      5-min Rain = 0
KQU1 180758Z 33004KT 05/02 A297 RMK A01 T00470019  RH  082%=      5-min Rain = 0
KQU1 180759Z 33004KT 05/02 A297 RMK A01 T00480019  RH  082%=      5-min Rain = 0
KQU1 180800Z 31004KT 05/02 A297 RMK A01 T00480019  RH  082%=      5-min Rain = 0
KQU1 180801Z 31003KT 05/02 A297 RMK A01 T00480019  RH  081%=      5-min Rain = 0
KQU1 180802Z 30004KT 05/02 A297 RMK A01 T00480019  RH  081%=      5-min Rain = 0
KQU1 180803Z 32003KT 05/02 A2971 RMK A01 T00480019  RH  082%=      5-min Rain = 0
KQU1 180804Z 32004KT 05/02 A2971 RMK A01 T00510021  RH  081%=      5-min Rain = 0
KQU1 180805Z 33004KT 05/02 A2971 RMK A01 T00540021  RH  080%=      5-min Rain = 0
KQU1 180806Z 33004KT 06/02 A2971 RMK A01 T00550020  RH  078%=      5-min Rain = 0
KQU1 180807Z 33004KT 06/02 A2971 RMK A01 T00550020  RH  078%=      5-min Rain = 0
KQU1 180808Z 33004KT 06/02 A2971 RMK A01 T00550019  RH  078%=      5-min Rain = 0
KQU1 180809Z 33004KT 05/02 A2971 RMK A01 T00540018  RH  078%=      5-min Rain = 0
KQU1 180810Z 33004KT 05/02 A2971 RMK A01 T00530018  RH  078%=      5-min Rain = 0
KQU1 180811Z 34004KT 05/02 A2971 RMK A01 T00530019  RH  079%=      5-min Rain = 0
KQU1 180812Z 33004KT 05/02 A2971 RMK A01 T00520018  RH  079%=      5-min Rain = 0
KQU1 180813Z 34004KT 05/02 A2971 RMK A01 T00510018  RH  079%=      5-min Rain = 0
KQU1 180814Z 34004KT 05/02 A2971 RMK A01 T00500017  RH  079%=      5-min Rain = 0
KQU1 180815Z 35004KT 05/02 A2971 RMK A01 T00500018  RH  080%=      5-min Rain = 0
KQU1 180816Z 36004KT 05/02 A2971 RMK A01 T00530020  RH  080%=      5-min Rain = 0
KQU1 180817Z 36004KT 06/02 A2971 RMK A01 T00550020  RH  078%=      5-min Rain = 0
KQU1 180818Z 35005KT 06/02 A2971 RMK A01 T00550020  RH  078%=      5-min Rain = 0
KQU1 180819Z 36005KT 06/02 A2971 RMK A01 T00560020  RH  077%=      5-min Rain = 0
KQU1 180820Z 36004KT 06/02 A2971 RMK A01 T00550019  RH  077%=      5-min Rain = 0
KQU1 180821Z 35004KT 05/02 A2971 RMK A01 T00540019  RH  078%=      5-min Rain = 0
KQU1 180822Z 35003KT 05/02 A2971 RMK A01 T00540019  RH  078%=      5-min Rain = 0
KQU1 180823Z 35002KT 05/02 A2971 RMK A01 T00530018  RH  078%=      5-min Rain = 0
KQU1 180824Z 34002KT 05/02 A2971 RMK A01 T00510017  RH  079%=      5-min Rain = 0
KQU1 180825Z 33003KT 05/02 A2971 RMK A01 T00490016  RH  079%=      5-min Rain = 0
KQU1 180826Z 32003KT 05/02 A2971 RMK A01 T00480016  RH  080%=      5-min Rain = 0
KQU1 180827Z 31004KT 05/02 A2971 RMK A01 T00460016  RH  081%=      5-min Rain = 0
KQU1 180828Z 32004KT 04/02 A2971 RMK A01 T00440016  RH  082%=      5-min Rain = 0
KQU1 180829Z 32005KT 04/02 A2971 RMK A01 T00440017  RH  083%=      5-min Rain = 0
KQU1 180830Z 31005KT 04/02 A2971 RMK A01 T00430018  RH  084%=      5-min Rain = 0
KQU1 180831Z 31006KT 04/02 A2971 RMK A01 T00430018  RH  084%=      5-min Rain = 0
KQU1 180832Z 31006KT 04/02 A2971 RMK A01 T00430019  RH  084%=      5-min Rain = 0
KQU1 180833Z 31006KT 04/02 A2971 RMK A01 T00430019  RH  085%=      5-min Rain = 0
KQU1 180834Z 32006KT 04/02 A2971 RMK A01 T00420019  RH  085%=      5-min Rain = 0
KQU1 180835Z 32006KT 04/02 A2971 RMK A01 T00420018  RH  084%=      5-min Rain = 0
KQU1 180836Z 32006KT 04/02 A2971 RMK A01 T00410018  RH  085%=      5-min Rain = 0
KQU1 180837Z 32006KT 04/02 A2971 RMK A01 T00410018  RH  085%=      5-min Rain = 0
KQU1 180838Z 32007KT 04/02 A2971 RMK A01 T00420018  RH  084%=      5-min Rain = 0
KQU1 180839Z 32007KT 04/02 A2971 RMK A01 T00410017  RH  084%=      5-min Rain = 0
KQU1 180840Z 33007KT 04/02 A2971 RMK A01 T00410017  RH  084%=      5-min Rain = 0
KQU1 180841Z 32007KT 04/02 A2971 RMK A01 T00400017  RH  085%=      5-min Rain = 0
KQU1 180842Z 32006KT 04/02 A2971 RMK A01 T00400017  RH  085%=      5-min Rain = 0
KQU1 180843Z 33006KT 04/02 A2971 RMK A01 T00400018  RH  085%=      5-min Rain = 0
KQU1 180844Z 33006KT 04/02 A2971 RMK A01 T00410018  RH  085%=      5-min Rain = 0
KQU1 180845Z 33007KT 04/02 A2971 RMK A01 T00430018  RH  084%=      5-min Rain = 0
KQU1 180846Z 33007KT 04/02 A2971 RMK A01 T00430018  RH  083%=      5-min Rain = 0
KQU1 180847Z 33006KT 04/02 A2971 RMK A01 T00440018  RH  083%=      5-min Rain = 0
KQU1 180848Z 34003KT 04/02 A2971 RMK A01 T00440019  RH  084%=      5-min Rain = 0
KQU1 180849Z 33003KT 05/02 A2971 RMK A01 T00450019  RH  083%=      5-min Rain = 0
KQU1 180850Z 33004KT 05/02 A2971 RMK A01 T00460019  RH  083%=      5-min Rain = 0
KQU1 180851Z 34004KT 05/02 A2971 RMK A01 T00460018  RH  082%=      5-min Rain = 0
KQU1 180852Z 35004KT 05/02 A2971 RMK A01 T00460018  RH  082%=      5-min Rain = 0
KQU1 180853Z 36003KT 05/02 A2971 RMK A01 T00460018  RH  082%=      5-min Rain = 0
KQU1 180854Z 35003KT 05/02 A2971 RMK A01 T00450018  RH  083%=      5-min Rain = 0
KQU1 180855Z 35003KT 05/02 A2971 RMK A01 T00450018  RH  083%=      5-min Rain = 0
KQU1 180856Z 34005KT 05/02 A2971 RMK A01 T00450019  RH  083%=      5-min Rain = 0
KQU1 180857Z 34005KT 05/02 A2971 RMK A01 T00470020  RH  083%=      5-min Rain = 0
KQU1 180858Z 33006KT 05/02 A2971 RMK A01 T00480020  RH  082%=      5-min Rain = 0
KQU1 180859Z 33005KT 05/02 A2971 RMK A01 T00470019  RH  082%=      5-min Rain = 0
KQU1 180900Z 32005KT 05/02 A2971 RMK A01 T00460020  RH  083%=      5-min Rain = 0
KQU1 180901Z 32006KT 05/02 A2971 RMK A01 T00460021  RH  084%=      5-min Rain = 0
KQU1 180902Z 32006KT 05/02 A2971 RMK A01 T00460020  RH  083%=      5-min Rain = 0
KQU1 180903Z 32006KT 05/02 A2972 RMK A01 T00460019  RH  083%=      5-min Rain = 0
KQU1 180904Z 32005KT 05/02 A2972 RMK A01 T00450018  RH  083%=      5-min Rain = 0
KQU1 180905Z 32005KT 04/02 A2972 RMK A01 T00440018  RH  083%=      5-min Rain = 0
KQU1 180906Z 33005KT 04/02 A2971 RMK A01 T00440018  RH  083%=      5-min Rain = 0
KQU1 180907Z 34004KT 04/02 A2971 RMK A01 T00440018  RH  083%=      5-min Rain = 0
KQU1 180908Z 36003KT 04/02 A2971 RMK A01 T00440019  RH  083%=      5-min Rain = 0
KQU1 180909Z 02003KT 05/02 A2971 RMK A01 T00450019  RH  083%=      5-min Rain = 0
KQU1 180910Z 35002KT 05/02 A2971 RMK A01 T00460020  RH  083%=      5-min Rain = 0
KQU1 180911Z 34002KT 05/02 A2971 RMK A01 T00470020  RH  082%=      5-min Rain = 0
KQU1 180912Z 33003KT 05/02 A2971 RMK A01 T00480020  RH  082%=      5-min Rain = 0
KQU1 180913Z 33003KT 05/02 A2971 RMK A01 T00480020  RH  082%=      5-min Rain = 0
KQU1 180914Z 32003KT 05/02 A2971 RMK A01 T00490019  RH  081%=      5-min Rain = 0
KQU1 180915Z 32004KT 05/02 A2971 RMK A01 T00480019  RH  081%=      5-min Rain = 0
KQU1 180916Z 32005KT 05/02 A2971 RMK A01 T00470018  RH  081%=      5-min Rain = 0
KQU1 180917Z 32005KT 05/02 A2971 RMK A01 T00460017  RH  081%=      5-min Rain = 0
KQU1 180918Z 33004KT 05/02 A2971 RMK A01 T00460018  RH  082%=      5-min Rain = 0
KQU1 180919Z 32005KT 05/02 A2972 RMK A01 T00460018  RH  082%=      5-min Rain = 0
KQU1 180920Z 32005KT 05/02 A2972 RMK A01 T00450018  RH  083%=      5-min Rain = 0
KQU1 180921Z 32005KT 04/02 A2972 RMK A01 T00440018  RH  083%=      5-min Rain = 0
KQU1 180922Z 32006KT 04/02 A2972 RMK A01 T00430018  RH  083%=      5-min Rain = 0
KQU1 180923Z 32006KT 04/02 A2972 RMK A01 T00430019  RH  084%=      5-min Rain = 0
KQU1 180924Z 32006KT 04/02 A2972 RMK A01 T00440021  RH  085%=      5-min Rain = 0
KQU1 180925Z 33006KT 05/02 A2972 RMK A01 T00450021  RH  085%=      5-min Rain = 0
KQU1 180926Z 33006KT 05/02 A2972 RMK A01 T00450021  RH  084%=      5-min Rain = 0
KQU1 180927Z 32007KT 05/02 A2972 RMK A01 T00460021  RH  084%=      5-min Rain = 0
KQU1 180928Z 32007KT 05/02 A2972 RMK A01 T00460022  RH  084%=      5-min Rain = 0
KQU1 180929Z 32007KT 05/02 A2971 RMK A01 T00460022  RH  084%=      5-min Rain = 0
KQU1 180930Z 32007KT 05/02 A2971 RMK A01 T00460022  RH  084%=      5-min Rain = 0
KQU1 180931Z 32006KT 05/02 A2971 RMK A01 T00460022  RH  085%=      5-min Rain = 0
KQU1 180932Z 32006KT 05/02 A2971 RMK A01 T00460023  RH  085%=      5-min Rain = 0
KQU1 180933Z 33006KT 05/02 A2971 RMK A01 T00470024  RH  085%=      5-min Rain = 0
KQU1 180934Z 34005KT 05/03 A2971 RMK A01 T00480025  RH  085%=      5-min Rain = 0
KQU1 180935Z 35004KT 05/03 A2971 RMK A01 T00490026  RH  085%=      5-min Rain = 0
KQU1 180936Z 35004KT 05/03 A2971 RMK A01 T00500027  RH  085%=      5-min Rain = 0
KQU1 180937Z 36004KT 05/03 A2971 RMK A01 T00510027  RH  085%=      5-min Rain = 0
KQU1 180938Z 01003KT 05/03 A2971 RMK A01 T00510029  RH  085%=      5-min Rain = 0
KQU1 180939Z 00004KT 05/03 A2971 RMK A01 T00510029  RH  085%=      5-min Rain = 0
KQU1 180940Z 01004KT 05/03 A2971 RMK A01 T00510028  RH  085%=      5-min Rain = 0
KQU1 180941Z 02004KT 05/03 A2971 RMK A01 T00510028  RH  085%=      5-min Rain = 0
KQU1 180942Z 02003KT 05/03 A2971 RMK A01 T00510028  RH  085%=      5-min Rain = 0
KQU1 180943Z 01003KT 05/03 A2971 RMK A01 T00500027  RH  085%=      5-min Rain = 0
KQU1 180944Z 01003KT 05/03 A2971 RMK A01 T00500028  RH  086%=      5-min Rain = 0
KQU1 180945Z 00005KT 05/03 A2971 RMK A01 T00500030  RH  087%=      5-min Rain = 0
KQU1 180946Z 35004KT 05/03 A2971 RMK A01 T00500028  RH  085%=      5-min Rain = 0
KQU1 180947Z 33004KT 05/03 A2971 RMK A01 T00500025  RH  084%=      5-min Rain = 0
KQU1 180948Z 32005KT 05/03 A2972 RMK A01 T00500026  RH  085%=      5-min Rain = 0
KQU1 180949Z 30005KT 05/03 A2972 RMK A01 T00490025  RH  085%=      5-min Rain = 0
KQU1 180950Z 30007KT 05/03 A2972 RMK A01 T00480026  RH  086%=      5-min Rain = 0
KQU1 180951Z 30007KT 05/03 A2972 RMK A01 T00470027  RH  087%=      5-min Rain = 0
KQU1 180952Z 30007KT 05/03 A2972 RMK A01 T00480028  RH  087%=      5-min Rain = 0
KQU1 180953Z 30007KT 05/03 A2972 RMK A01 T00480028  RH  087%=      5-min Rain = 0
KQU1 180954Z 30007KT 05/03 A2972 RMK A01 T00480028  RH  087%=      5-min Rain = 0
KQU1 180955Z 31006KT 05/03 A2972 RMK A01 T00480028  RH  087%=      5-min Rain = 0
KQU1 180956Z 31006KT 05/03 A2972 RMK A01 T00480028  RH  087%=      5-min Rain = 0
KQU1 180957Z 32006KT 05/03 A2972 RMK A01 T00480028  RH  087%=      5-min Rain = 0
KQU1 180958Z 32006KT 05/03 A2972 RMK A01 T00480027  RH  087%=      5-min Rain = 0
KQU1 180959Z 32006KT 05/03 A2972 RMK A01 T00470026  RH  086%=      5-min Rain = 0
KQU1 181000Z 34004KT 05/03 A2972 RMK A01 T00470027  RH  087%=      5-min Rain = 0
KQU1 181001Z 35003KT 05/03 A2972 RMK A01 T00480029  RH  088%=      5-min Rain = 0
KQU1 181002Z 34004KT 05/03 A2972 RMK A01 T00480030  RH  088%=      5-min Rain = 0
KQU1 181003Z 32005KT 05/03 A2972 RMK A01 T00480029  RH  087%=      5-min Rain = 0
KQU1 181004Z 32007KT 05/03 A2972 RMK A01 T00480027  RH  087%=      5-min Rain = 0
KQU1 181005Z 32008KT 05/03 A2972 RMK A01 T00470027  RH  087%=      5-min Rain = 0
KQU1 181006Z 32008KT 05/03 A2972 RMK A01 T00480029  RH  087%=      5-min Rain = 0
KQU1 181007Z 33008KT 05/03 A2972 RMK A01 T00480028  RH  087%=      5-min Rain = 0
KQU1 181008Z 34007KT 05/03 A2972 RMK A01 T00490029  RH  087%=      5-min Rain = 0
KQU1 181009Z 35005KT 05/03 A2972 RMK A01 T00500031  RH  087%=      5-min Rain = 0
KQU1 181010Z 35006KT 05/03 A2972 RMK A01 T00520031  RH  087%=      5-min Rain = 0
KQU1 181011Z 35006KT 05/03 A2972 RMK A01 T00530031  RH  086%=      5-min Rain = 0
KQU1 181012Z 36005KT 05/03 A2971 RMK A01 T00530031  RH  086%=      5-min Rain = 0
KQU1 181013Z 00004KT 05/03 A2971 RMK A01 T00530032  RH  086%=      5-min Rain = 0
KQU1 181014Z 00004KT 05/03 A2971 RMK A01 T00530032  RH  086%=      5-min Rain = 0
KQU1 181015Z 36003KT 05/03 A2971 RMK A01 T00530032  RH  086%=      5-min Rain = 0
KQU1 181016Z 35002KT 05/03 A2972 RMK A01 T00520031  RH  087%=      5-min Rain = 0
KQU1 181017Z 35004KT 05/03 A2972 RMK A01 T00510030  RH  086%=      5-min Rain = 0
KQU1 181018Z 34004KT 05/03 A2972 RMK A01 T00510028  RH  086%=      5-min Rain = 0
KQU1 181019Z 31005KT 05/03 A2972 RMK A01 T00500029  RH  086%=      5-min Rain = 0
KQU1 181020Z 30006KT 05/03 A2972 RMK A01 T00500029  RH  086%=      5-min Rain = 0
KQU1 181021Z 31007KT 05/03 A2973 RMK A01 T00500031  RH  088%=      5-min Rain = 0
KQU1 181022Z 30007KT 05/03 A2973 RMK A01 T00500032  RH  088%=      5-min Rain = 0
KQU1 181023Z 31007KT 05/03 A2973 RMK A01 T00520034  RH  088%=      5-min Rain = 0
KQU1 181024Z 31008KT 05/03 A2973 RMK A01 T00540034  RH  087%=      5-min Rain = 0
KQU1 181025Z 32007KT 05/03 A2973 RMK A01 T00540033  RH  086%=      5-min Rain = 0
KQU1 181026Z 33007KT 05/03 A2973 RMK A01 T00540032  RH  086%=      5-min Rain = 0
KQU1 181027Z 34006KT 06/03 A2973 RMK A01 T00550033  RH  086%=      5-min Rain = 0
KQU1 181028Z 34005KT 06/03 A2973 RMK A01 T00560033  RH  086%=      5-min Rain = 0
KQU1 181029Z 34004KT 06/03 A2973 RMK A01 T00560033  RH  086%=      5-min Rain = 0
KQU1 181030Z 34004KT 06/03 A2973 RMK A01 T00550034  RH  086%=      5-min Rain = 0
KQU1 181031Z 34004KT 06/03 A2973 RMK A01 T00550033  RH  086%=      5-min Rain = 0
KQU1 181032Z 32006KT 06/03 A2973 RMK A01 T00550032  RH  085%=      5-min Rain = 0
KQU1 181033Z 32006KT 06/03 A2973 RMK A01 T00550032  RH  085%=      5-min Rain = 0
KQU1 181034Z 32006KT 06/03 A2973 RMK A01 T00550032  RH  085%=      5-min Rain = 0
KQU1 181035Z 32006KT 06/03 A2973 RMK A01 T00550032  RH  085%=      5-min Rain = 0
KQU1 181036Z 33007KT 05/03 A2973 RMK A01 T00540031  RH  085%=      5-min Rain = 0
KQU1 181037Z 34005KT 06/03 A2973 RMK A01 T00560033  RH  085%=      5-min Rain = 0
KQU1 181038Z 35004KT 06/03 A2973 RMK A01 T00570033  RH  085%=      5-min Rain = 0
KQU1 181039Z 01003KT 06/03 A2972 RMK A01 T00570033  RH  085%=      5-min Rain = 0
KQU1 181040Z 02003KT 06/04 A2972 RMK A01 T00570035  RH  085%=      5-min Rain = 0
KQU1 181041Z 02004KT 06/04 A2972 RMK A01 T00580036  RH  086%=      5-min Rain = 0
KQU1 181042Z 02004KT 06/04 A2972 RMK A01 T00580036  RH  086%=      5-min Rain = 0
KQU1 181043Z 36002KT 06/04 A2972 RMK A01 T00570035  RH  086%=      5-min Rain = 0
KQU1 181044Z 00003KT 06/03 A2972 RMK A01 T00560034  RH  086%=      5-min Rain = 0
KQU1 181045Z 36003KT 06/04 A2973 RMK A01 T00560035  RH  086%=      5-min Rain = 0
KQU1 181046Z 34003KT 06/03 A2973 RMK A01 T00560033  RH  085%=      5-min Rain = 0
KQU1 181047Z 32004KT 05/03 A2973 RMK A01 T00540030  RH  085%=      5-min Rain = 0
KQU1 181048Z 32005KT 06/03 A2973 RMK A01 T00550033  RH  086%=      5-min Rain = 0
KQU1 181049Z 32005KT 06/03 A2973 RMK A01 T00550032  RH  085%=      5-min Rain = 0
KQU1 181050Z 31006KT 05/03 A2973 RMK A01 T00530030  RH  085%=      5-min Rain = 0
KQU1 181051Z 32006KT 05/03 A2973 RMK A01 T00520030  RH  086%=      5-min Rain = 0
KQU1 181052Z 33006KT 05/03 A2973 RMK A01 T00520032  RH  087%=      5-min Rain = 0
KQU1 181053Z 34005KT 05/03 A2973 RMK A01 T00540034  RH  087%=      5-min Rain = 0
KQU1 181054Z 35005KT 06/03 A2973 RMK A01 T00550034  RH  086%=      5-min Rain = 0
KQU1 181055Z 35004KT 06/03 A2973 RMK A01 T00550034  RH  086%=      5-min Rain = 0
KQU1 181056Z 35004KT 06/03 A2973 RMK A01 T00550033  RH  086%=      5-min Rain = 0
KQU1 181057Z 34003KT 05/03 A2973 RMK A01 T00540033  RH  086%=      5-min Rain = 0
KQU1 181058Z 34004KT 05/03 A2973 RMK A01 T00530032  RH  087%=      5-min Rain = 0
KQU1 181059Z 34004KT 05/03 A2973 RMK A01 T00530032  RH  086%=      5-min Rain = 0
KQU1 181100Z 34005KT 05/03 A2973 RMK A01 T00530033  RH  087%=      5-min Rain = 0
KQU1 181101Z 34005KT 06/04 A2973 RMK A01 T00550035  RH  087%=      5-min Rain = 0
KQU1 181102Z 34005KT 06/04 A2973 RMK A01 T00570036  RH  086%=      5-min Rain = 0
KQU1 181103Z 33005KT 06/04 A2973 RMK A01 T00580035  RH  085%=      5-min Rain = 0
KQU1 181104Z 34004KT 06/04 A2973 RMK A01 T00590036  RH  085%=      5-min Rain = 0
KQU1 181105Z 35005KT 06/04 A2973 RMK A01 T00600036  RH  085%=      5-min Rain = 0
KQU1 181106Z 35004KT 06/04 A2973 RMK A01 T00600036  RH  084%=      5-min Rain = 0
KQU1 181107Z 35004KT 06/04 A2973 RMK A01 T00610035  RH  084%=      5-min Rain = 0
KQU1 181108Z 35004KT 06/04 A2973 RMK A01 T00610035  RH  084%=      5-min Rain = 0
KQU1 181109Z 35004KT 06/04 A2973 RMK A01 T00600036  RH  084%=      5-min Rain = 0
KQU1 181110Z 35004KT 06/04 A2973 RMK A01 T00600037  RH  085%=      5-min Rain = 0
KQU1 181111Z 34004KT 06/04 A2973 RMK A01 T00590036  RH  085%=      5-min Rain = 0
KQU1 181112Z 34004KT 06/03 A2973 RMK A01 T00570032  RH  084%=      5-min Rain = 0
KQU1 181113Z 33004KT 06/03 A2973 RMK A01 T00550030  RH  084%=      5-min Rain = 0
KQU1 181114Z 34004KT 05/03 A2973 RMK A01 T00520028  RH  084%=      5-min Rain = 0
KQU1 181115Z 33004KT 05/03 A2973 RMK A01 T00500028  RH  085%=      5-min Rain = 0
KQU1 181116Z 33005KT 05/03 A2974 RMK A01 T00490027  RH  086%=      5-min Rain = 0
KQU1 181117Z 33005KT 05/03 A2974 RMK A01 T00480027  RH  086%=      5-min Rain = 0
KQU1 181118Z 33005KT 05/03 A2974 RMK A01 T00480029  RH  087%=      5-min Rain = 0
KQU1 181119Z 33005KT 05/03 A2974 RMK A01 T00480029  RH  088%=      5-min Rain = 0
KQU1 181120Z 32005KT 05/03 A2974 RMK A01 T00480029  RH  088%=      5-min Rain = 0
KQU1 181121Z 31006KT 05/03 A2974 RMK A01 T00470028  RH  088%=      5-min Rain = 0
KQU1 181122Z 31007KT 05/03 A2974 RMK A01 T00470030  RH  089%=      5-min Rain = 0
KQU1 181123Z 31007KT 05/03 A2974 RMK A01 T00480030  RH  089%=      5-min Rain = 0
KQU1 181124Z 31008KT 05/03 A2974 RMK A01 T00480030  RH  089%=      5-min Rain = 0
KQU1 181125Z 31007KT 05/03 A2974 RMK A01 T00480030  RH  089%=      5-min Rain = 0
KQU1 181126Z 32007KT 05/03 A2974 RMK A01 T00480030  RH  088%=      5-min Rain = 0
KQU1 181127Z 33007KT 05/03 A2974 RMK A01 T00480030  RH  088%=      5-min Rain = 0
KQU1 181128Z 33007KT 05/03 A2974 RMK A01 T00480030  RH  088%=      5-min Rain = 0
KQU1 181129Z 34005KT 05/03 A2974 RMK A01 T00480030  RH  088%=      5-min Rain = 0
KQU1 181130Z 34004KT 05/03 A2974 RMK A01 T00480030  RH  088%=      5-min Rain = 0
KQU1 181131Z 34004KT 05/03 A2973 RMK A01 T00480031  RH  089%=      5-min Rain = 0
KQU1 181132Z 35004KT 05/03 A2973 RMK A01 T00500032  RH  088%=      5-min Rain = 0
KQU1 181133Z 34004KT 05/03 A2973 RMK A01 T00500033  RH  088%=      5-min Rain = 0
KQU1 181134Z 34004KT 05/03 A2974 RMK A01 T00500033  RH  089%=      5-min Rain = 0
KQU1 181135Z 33004KT 05/03 A2974 RMK A01 T00500033  RH  089%=      5-min Rain = 0
KQU1 181136Z 33003KT 05/03 A2974 RMK A01 T00500032  RH  088%=      5-min Rain = 0
KQU1 181137Z 32003KT 05/03 A2974 RMK A01 T00490029  RH  087%=      5-min Rain = 0
KQU1 181138Z 31004KT 05/03 A2974 RMK A01 T00480028  RH  087%=      5-min Rain = 0
KQU1 181139Z 30005KT 05/03 A2974 RMK A01 T00480029  RH  087%=      5-min Rain = 0
KQU1 181140Z 30005KT 05/03 A2974 RMK A01 T00480029  RH  088%=      5-min Rain = 0
KQU1 181141Z 30005KT 05/03 A2974 RMK A01 T00470029  RH  088%=      5-min Rain = 0
KQU1 181142Z 31005KT 05/03 A2974 RMK A01 T00470029  RH  088%=      5-min Rain = 0
KQU1 181143Z 31005KT 05/03 A2974 RMK A01 T00460028  RH  088%=      5-min Rain = 0
KQU1 181144Z 30005KT 05/03 A2974 RMK A01 T00450027  RH  088%=      5-min Rain = 0
KQU1 181145Z 31005KT 05/03 A2974 RMK A01 T00450027  RH  088%=      5-min Rain = 0
KQU1 181146Z 30005KT 04/03 A2974 RMK A01 T00440027  RH  088%=      5-min Rain = 0
KQU1 181147Z 30004KT 04/03 A2974 RMK A01 T00440026  RH  088%=      5-min Rain = 0
KQU1 181148Z 29004KT 04/03 A2975 RMK A01 T00430027  RH  089%=      5-min Rain = 0
KQU1 181149Z 29004KT 04/03 A2975 RMK A01 T00430025  RH  089%=      5-min Rain = 0
KQU1 181150Z 29004KT 04/02 A2975 RMK A01 T00410024  RH  088%=      5-min Rain = 0
KQU1 181151Z 29005KT 04/02 A2975 RMK A01 T00400023  RH  089%=      5-min Rain = 0
KQU1 181152Z 30005KT 04/02 A2975 RMK A01 T00390023  RH  089%=      5-min Rain = 0
KQU1 181153Z 30004KT 04/03 A2975 RMK A01 T00390025  RH  090%=      5-min Rain = 0
KQU1 181154Z 31004KT 04/03 A2975 RMK A01 T00400025  RH  090%=      5-min Rain = 0
KQU1 181155Z 31003KT 04/03 A2975 RMK A01 T00400025  RH  090%=      5-min Rain = 0
KQU1 181156Z 32003KT 04/03 A2975 RMK A01 T00400027  RH  091%=      5-min Rain = 0
KQU1 181157Z 33003KT 04/03 A2975 RMK A01 T00410027  RH  091%=      5-min Rain = 0
KQU1 181158Z 32003KT 04/03 A2975 RMK A01 T00420028  RH  091%=      5-min Rain = 0
KQU1 181159Z 31004KT 04/03 A2975 RMK A01 T00430028  RH  090%=      5-min Rain = 0
KQU1 181200Z 30005KT 04/03 A2975 RMK A01 T00430028  RH  089%=      5-min Rain = 0
KQU1 181201Z 29005KT 04/03 A2975 RMK A01 T00430026  RH  089%=      5-min Rain = 0
KQU1 181202Z 28005KT 04/02 A2975 RMK A01 T00420024  RH  089%=      5-min Rain = 0
KQU1 181203Z 27004KT 04/02 A2975 RMK A01 T00400024  RH  089%=      5-min Rain = 0
KQU1 181204Z 28005KT 04/02 A2975 RMK A01 T00390023  RH  089%=      5-min Rain = 0
KQU1 181205Z 28005KT 04/02 A2975 RMK A01 T00380023  RH  090%=      5-min Rain = 0
KQU1 181206Z 28003KT 04/03 A2975 RMK A01 T00390025  RH  091%=      5-min Rain = 0
KQU1 181207Z 29003KT 04/03 A2975 RMK A01 T00400026  RH  091%=      5-min Rain = 0
KQU1 181208Z 32003KT 04/03 A2975 RMK A01 T00400026  RH  091%=      5-min Rain = 0
KQU1 181209Z 33003KT 04/03 A2975 RMK A01 T00400027  RH  091%=      5-min Rain = 0
KQU1 181210Z 33004KT 04/03 A2975 RMK A01 T00420028  RH  091%=      5-min Rain = 0
KQU1 181211Z 32004KT 04/03 A2975 RMK A01 T00430029  RH  091%=      5-min Rain = 0
KQU1 181212Z 31005KT 04/03 A2975 RMK A01 T00440029  RH  090%=      5-min Rain = 0
KQU1 181213Z 30006KT 05/03 A2975 RMK A01 T00450028  RH  089%=      5-min Rain = 0
KQU1 181214Z 29006KT 04/03 A2975 RMK A01 T00440026  RH  088%=      5-min Rain = 0
KQU1 181215Z 29005KT 04/03 A2975 RMK A01 T00430026  RH  088%=      5-min Rain = 0
KQU1 181216Z 29005KT 04/03 A2975 RMK A01 T00420026  RH  089%=      5-min Rain = 0
KQU1 181217Z 29004KT 04/03 A2975 RMK A01 T00420026  RH  089%=      5-min Rain = 0
KQU1 181218Z 29005KT 04/03 A2975 RMK A01 T00420026  RH  090%=      5-min Rain = 0
KQU1 181219Z 30004KT 04/03 A2975 RMK A01 T00410025  RH  089%=      5-min Rain = 0
KQU1 181220Z 30004KT 04/02 A2975 RMK A01 T00400024  RH  089%=      5-min Rain = 0
KQU1 181221Z 31005KT 04/02 A2975 RMK A01 T00400023  RH  089%=      5-min Rain = 0
KQU1 181222Z 31005KT 04/02 A2975 RMK A01 T00390024  RH  090%=      5-min Rain = 0
KQU1 181223Z 31006KT 04/03 A2975 RMK A01 T00400026  RH  091%=      5-min Rain = 0
KQU1 181224Z 31006KT 04/03 A2975 RMK A01 T00410028  RH  091%=      5-min Rain = 0
KQU1 181225Z 31006KT 04/03 A2975 RMK A01 T00440031  RH  091%=      5-min Rain = 0
KQU1 181226Z 31006KT 05/03 A2975 RMK A01 T00460032  RH  091%=      5-min Rain = 0
KQU1 181227Z 31006KT 05/03 A2975 RMK A01 T00470032  RH  090%=      5-min Rain = 0
KQU1 181228Z 31006KT 05/03 A2975 RMK A01 T00480032  RH  089%=      5-min Rain = 0
KQU1 181229Z 31006KT 05/03 A2975 RMK A01 T00490032  RH  089%=      5-min Rain = 0
KQU1 181230Z 30006KT 05/03 A2975 RMK A01 T00500032  RH  088%=      5-min Rain = 0
KQU1 181231Z 30007KT 05/03 A2975 RMK A01 T00500032  RH  088%=      5-min Rain = 0
KQU1 181232Z 30007KT 05/03 A2975 RMK A01 T00500031  RH  088%=      5-min Rain = 0
KQU1 181233Z 30006KT 05/03 A2975 RMK A01 T00490031  RH  088%=      5-min Rain = 0
KQU1 181234Z 30006KT 05/03 A2975 RMK A01 T00490031  RH  088%=      5-min Rain = 0
KQU1 181235Z 31006KT 05/03 A2975 RMK A01 T00490030  RH  088%=      5-min Rain = 0
KQU1 181236Z 31006KT 05/03 A2975 RMK A01 T00490030  RH  088%=      5-min Rain = 0
KQU1 181237Z 31006KT 05/03 A2975 RMK A01 T00490030  RH  088%=      5-min Rain = 0
KQU1 181238Z 31006KT 05/03 A2975 RMK A01 T00490030  RH  088%=      5-min Rain = 0
KQU1 181239Z 32006KT 05/03 A2975 RMK A01 T00490030  RH  088%=      5-min Rain = 0
KQU1 181240Z 32005KT 05/03 A2975 RMK A01 T00490030  RH  088%=      5-min Rain = 0
KQU1 181241Z 32005KT 05/03 A2975 RMK A01 T00500032  RH  088%=      5-min Rain = 0
KQU1 181242Z 32005KT 05/03 A2975 RMK A01 T00510032  RH  088%=      5-min Rain = 0
KQU1 181243Z 32005KT 05/03 A2975 RMK A01 T00510032  RH  087%=      5-min Rain = 0
KQU1 181244Z 32006KT 05/03 A2975 RMK A01 T00520031  RH  087%=      5-min Rain = 0
KQU1 181245Z 31006KT 05/03 A2975 RMK A01 T00510030  RH  086%=      5-min Rain = 0
KQU1 181246Z 31006KT 05/03 A2975 RMK A01 T00510030  RH  086%=      5-min Rain = 0
KQU1 181247Z 30006KT 05/03 A2975 RMK A01 T00500030  RH  087%=      5-min Rain = 0
KQU1 181248Z 30006KT 05/03 A2976 RMK A01 T00500029  RH  087%=      5-min Rain = 0
KQU1 181249Z 30006KT 05/03 A2976 RMK A01 T00490029  RH  087%=      5-min Rain = 0
KQU1 181250Z 30006KT 05/03 A2976 RMK A01 T00480029  RH  087%=      5-min Rain = 0
KQU1 181251Z 30006KT 05/03 A2975 RMK A01 T00480029  RH  087%=      5-min Rain = 0
KQU1 181252Z 30005KT 05/03 A2975 RMK A01 T00480029  RH  087%=      5-min Rain = 0
KQU1 181253Z 31005KT 05/03 A2975 RMK A01 T00470028  RH  088%=      5-min Rain = 0
KQU1 181254Z 31005KT 05/03 A2975 RMK A01 T00470028  RH  088%=      5-min Rain = 0
KQU1 181255Z 31005KT 05/03 A2975 RMK A01 T00470028  RH  088%=      5-min Rain = 0
KQU1 181256Z 31006KT 05/03 A2975 RMK A01 T00470028  RH  088%=      5-min Rain = 0
KQU1 181257Z 31006KT 05/03 A2975 RMK A01 T00460028  RH  088%=      5-min Rain = 0
KQU1 181258Z 31006KT 05/03 A2975 RMK A01 T00460028  RH  088%=      5-min Rain = 0
KQU1 181259Z 31006KT 05/03 A2975 RMK A01 T00460028  RH  088%=      5-min Rain = 0
KQU1 181300Z 31006KT 05/03 A2975 RMK A01 T00460028  RH  088%=      5-min Rain = 0
KQU1 181301Z 31006KT 05/03 A2975 RMK A01 T00460028  RH  088%=      5-min Rain = 0
KQU1 181302Z 30007KT 05/03 A2975 RMK A01 T00460028  RH  088%=      5-min Rain = 0
KQU1 181303Z 30007KT 05/03 A2976 RMK A01 T00460028  RH  088%=      5-min Rain = 0
KQU1 181304Z 30007KT 05/03 A2976 RMK A01 T00460029  RH  088%=      5-min Rain = 0
KQU1 181305Z 30006KT 05/03 A2976 RMK A01 T00460028  RH  088%=      5-min Rain = 0
KQU1 181306Z 29006KT 05/03 A2976 RMK A01 T00450028  RH  088%=      5-min Rain = 0
KQU1 181307Z 29005KT 05/03 A2976 RMK A01 T00450028  RH  089%=      5-min Rain = 0
KQU1 181308Z 29005KT 05/03 A2976 RMK A01 T00450028  RH  089%=      5-min Rain = 0
KQU1 181309Z 29005KT 05/03 A2976 RMK A01 T00450028  RH  089%=      5-min Rain = 0
KQU1 181310Z 29005KT 04/03 A2976 RMK A01 T00440027  RH  089%=      5-min Rain = 0
KQU1 181311Z 29006KT 04/03 A2976 RMK A01 T00440027  RH  089%=      5-min Rain = 0
KQU1 181312Z 29006KT 04/03 A2976 RMK A01 T00440027  RH  089%=      5-min Rain = 0
KQU1 181313Z 29005KT 04/03 A2976 RMK A01 T00430027  RH  089%=      5-min Rain = 0
KQU1 181314Z 29006KT 04/03 A2976 RMK A01 T00430027  RH  089%=      5-min Rain = 0
KQU1 181315Z 29006KT 04/03 A2976 RMK A01 T00440028  RH  089%=      5-min Rain = 0
KQU1 181316Z 29006KT 04/03 A2977 RMK A01 T00440028  RH  089%=      5-min Rain = 0
KQU1 181317Z 29006KT 04/03 A2977 RMK A01 T00440028  RH  089%=      5-min Rain = 0
KQU1 181318Z 29006KT 04/03 A2977 RMK A01 T00440028  RH  089%=      5-min Rain = 0
KQU1 181319Z 29005KT 04/03 A2977 RMK A01 T00440028  RH  089%=      5-min Rain = 0
KQU1 181320Z 29005KT 04/03 A2977 RMK A01 T00440027  RH  089%=      5-min Rain = 0
KQU1 181321Z 29005KT 04/03 A2977 RMK A01 T00440027  RH  089%=      5-min Rain = 0
KQU1 181322Z 29005KT 04/03 A2977 RMK A01 T00430026  RH  089%=      5-min Rain = 0
KQU1 181323Z 29005KT 04/03 A2977 RMK A01 T00420025  RH  089%=      5-min Rain = 0
KQU1 181324Z 28005KT 04/03 A2977 RMK A01 T00420026  RH  089%=      5-min Rain = 0
KQU1 181325Z 27005KT 04/03 A2977 RMK A01 T00420026  RH  089%=      5-min Rain = 0
KQU1 181326Z 27004KT 04/03 A2977 RMK A01 T00420025  RH  089%=      5-min Rain = 0
KQU1 181327Z 24004KT 04/02 A2977 RMK A01 T00410024  RH  089%=      5-min Rain = 0
KQU1 181328Z 23004KT 04/03 A2978 RMK A01 T00420027  RH  090%=      5-min Rain = 0
KQU1 181329Z 25005KT 04/03 A2978 RMK A01 T00440028  RH  089%=      5-min Rain = 0
KQU1 181330Z 26004KT 05/03 A2978 RMK A01 T00460028  RH  088%=      5-min Rain = 0
KQU1 181331Z 26004KT 05/03 A2978 RMK A01 T00480029  RH  087%=      5-min Rain = 0
KQU1 181332Z 28002KT 05/03 A2978 RMK A01 T00490027  RH  086%=      5-min Rain = 0
KQU1 181333Z 30001KT 05/03 A2978 RMK A01 T00480027  RH  086%=      5-min Rain = 0
KQU1 181334Z 32002KT 05/03 A2978 RMK A01 T00490028  RH  087%=      5-min Rain = 0
KQU1 181335Z 30002KT 05/03 A2978 RMK A01 T00490028  RH  086%=      5-min Rain = 0
KQU1 181336Z 30003KT 05/03 A2978 RMK A01 T00500029  RH  086%=      5-min Rain = 0
KQU1 181337Z 29004KT 05/03 A2978 RMK A01 T00500028  RH  086%=      5-min Rain = 0
KQU1 181338Z 29005KT 05/03 A2978 RMK A01 T00500028  RH  085%=      5-min Rain = 0
KQU1 181339Z 29005KT 05/03 A2978 RMK A01 T00500027  RH  085%=      5-min Rain = 0
KQU1 181340Z 29006KT 05/03 A2978 RMK A01 T00500027  RH  085%=      5-min Rain = 0
KQU1 181341Z 29006KT 05/03 A2978 RMK A01 T00490026  RH  085%=      5-min Rain = 0
KQU1 181342Z 29006KT 05/03 A2978 RMK A01 T00490026  RH  085%=      5-min Rain = 0
KQU1 181343Z 28006KT 05/03 A2978 RMK A01 T00480027  RH  086%=      5-min Rain = 0
KQU1 181344Z 28005KT 05/03 A2978 RMK A01 T00490028  RH  086%=      5-min Rain = 0
KQU1 181345Z 29006KT 05/03 A2978 RMK A01 T00500029  RH  086%=      5-min Rain = 0
KQU1 181346Z 29006KT 05/03 A2978 RMK A01 T00500030  RH  087%=      5-min Rain = 0
KQU1 181347Z 29006KT 05/03 A2978 RMK A01 T00510031  RH  086%=      5-min Rain = 0
KQU1 181348Z 30006KT 05/03 A2978 RMK A01 T00520031  RH  086%=      5-min Rain = 0
KQU1 181349Z 29006KT 05/03 A2978 RMK A01 T00530032  RH  086%=      5-min Rain = 0
KQU1 181350Z 29007KT 06/03 A2978 RMK A01 T00550032  RH  085%=      5-min Rain = 0
KQU1 181351Z 30008KT 06/03 A2978 RMK A01 T00560032  RH  085%=      5-min Rain = 0
KQU1 181352Z 30009KT 06/03 A2978 RMK A01 T00580032  RH  084%=      5-min Rain = 0
KQU1 181353Z 30009KT 06/03 A2978 RMK A01 T00600033  RH  083%=      5-min Rain = 0
KQU1 181354Z 30009KT 06/03 A2978 RMK A01 T00610033  RH  082%=      5-min Rain = 0
KQU1 181355Z 30009KT 06/03 A2978 RMK A01 T00630033  RH  081%=      5-min Rain = 0
KQU1 181356Z 30009KT 06/03 A2978 RMK A01 T00640033  RH  081%=      5-min Rain = 0
KQU1 181357Z 30009KT 06/03 A2978 RMK A01 T00640033  RH  080%=      5-min Rain = 0
KQU1 181358Z 30009KT 07/03 A2978 RMK A01 T00650033  RH  080%=      5-min Rain = 0
KQU1 181359Z 30009KT 07/03 A2978 RMK A01 T00650033  RH  080%=      5-min Rain = 0
KQU1 181400Z 30008KT 07/03 A2978 RMK A01 T00650033  RH  080%=      5-min Rain = 0
KQU1 181401Z 30008KT 07/03 A2978 RMK A01 T00660034  RH  080%=      5-min Rain = 0
KQU1 181402Z 30007KT 07/03 A2978 RMK A01 T00660034  RH  080%=      5-min Rain = 0
KQU1 181403Z 30007KT 07/03 A2978 RMK A01 T00670034  RH  080%=      5-min Rain = 0
KQU1 181404Z 30007KT 07/03 A2978 RMK A01 T00680034  RH  079%=      5-min Rain = 0
KQU1 181405Z 30007KT 07/03 A2978 RMK A01 T00680034  RH  079%=      5-min Rain = 0
KQU1 181406Z 30007KT 07/03 A2978 RMK A01 T00690034  RH  078%=      5-min Rain = 0
KQU1 181407Z 30007KT 07/03 A2978 RMK A01 T00700034  RH  078%=      5-min Rain = 0
KQU1 181408Z 30007KT 07/04 A2978 RMK A01 T00710035  RH  078%=      5-min Rain = 0
KQU1 181409Z 30006KT 07/04 A2978 RMK A01 T00710035  RH  078%=      5-min Rain = 0
KQU1 181410Z 30007KT 07/04 A2978 RMK A01 T00720035  RH  078%=      5-min Rain = 0
KQU1 181411Z 30007KT 07/04 A2978 RMK A01 T00720035  RH  077%=      5-min Rain = 0
KQU1 181412Z 30007KT 07/04 A2978 RMK A01 T00730035  RH  077%=      5-min Rain = 0
KQU1 181413Z 30007KT 07/04 A2978 RMK A01 T00740036  RH  077%=      5-min Rain = 0
KQU1 181414Z 30007KT 07/04 A2978 RMK A01 T00740036  RH  076%=      5-min Rain = 0
KQU1 181415Z 30007KT 08/04 A2978 RMK A01 T00750037  RH  077%=      5-min Rain = 0
KQU1 181416Z 30007KT 08/04 A2978 RMK A01 T00760037  RH  076%=      5-min Rain = 0
KQU1 181417Z 30007KT 08/04 A2978 RMK A01 T00770037  RH  076%=      5-min Rain = 0
KQU1 181418Z 30007KT 08/04 A2978 RMK A01 T00780037  RH  076%=      5-min Rain = 0
KQU1 181419Z 30006KT 08/04 A2978 RMK A01 T00780038  RH  076%=      5-min Rain = 0
KQU1 181420Z 30006KT 08/04 A2979 RMK A01 T00790038  RH  075%=      5-min Rain = 0
KQU1 181421Z 30006KT 08/04 A2979 RMK A01 T00800039  RH  075%=      5-min Rain = 0
KQU1 181422Z 30006KT 08/04 A2979 RMK A01 T00820039  RH  074%=      5-min Rain = 0
KQU1 181423Z 30006KT 08/04 A2979 RMK A01 T00820038  RH  073%=      5-min Rain = 0
KQU1 181424Z 30006KT 08/04 A2979 RMK A01 T00830038  RH  073%=      5-min Rain = 0
KQU1 181425Z 30006KT 08/04 A2979 RMK A01 T00840038  RH  073%=      5-min Rain = 0
KQU1 181426Z 30006KT 09/04 A2979 RMK A01 T00850039  RH  073%=      5-min Rain = 0
KQU1 181427Z 31006KT 09/04 A2979 RMK A01 T00860039  RH  072%=      5-min Rain = 0
KQU1 181428Z 31005KT 09/04 A2979 RMK A01 T00870040  RH  072%=      5-min Rain = 0
KQU1 181429Z 32005KT 09/04 A2979 RMK A01 T00880040  RH  072%=      5-min Rain = 0
KQU1 181430Z 32005KT 09/04 A2979 RMK A01 T00890041  RH  072%=      5-min Rain = 0
KQU1 181431Z 32004KT 09/04 A2979 RMK A01 T00900040  RH  071%=      5-min Rain = 0
KQU1 181432Z 33004KT 09/04 A2979 RMK A01 T00910039  RH  070%=      5-min Rain = 0
KQU1 181433Z 33005KT 09/04 A2979 RMK A01 T00930037  RH  068%=      5-min Rain = 0
KQU1 181434Z 33005KT 09/04 A2979 RMK A01 T00940038  RH  068%=      5-min Rain = 0
KQU1 181435Z 33005KT 10/04 A2979 RMK A01 T00950037  RH  067%=      5-min Rain = 0
KQU1 181436Z 33004KT 10/04 A2979 RMK A01 T00960039  RH  068%=      5-min Rain = 0
KQU1 181437Z 33005KT 10/04 A2979 RMK A01 T00970040  RH  067%=      5-min Rain = 0
KQU1 181438Z 32005KT 10/04 A2979 RMK A01 T00980041  RH  067%=      5-min Rain = 0
KQU1 181439Z 32005KT 10/04 A2979 RMK A01 T00990041  RH  067%=      5-min Rain = 0
KQU1 181440Z 32005KT 10/04 A2979 RMK A01 T01000042  RH  067%=      5-min Rain = 0
KQU1 181441Z 32004KT 10/04 A2979 RMK A01 T01010044  RH  068%=      5-min Rain = 0
KQU1 181442Z 32004KT 10/04 A2979 RMK A01 T01020042  RH  067%=      5-min Rain = 0
KQU1 181443Z 32004KT 10/04 A2979 RMK A01 T01030043  RH  067%=      5-min Rain = 0
KQU1 181444Z 35003KT 10/05 A2979 RMK A01 T01040045  RH  067%=      5-min Rain = 0
KQU1 181445Z 35003KT 11/04 A2979 RMK A01 T01060042  RH  065%=      5-min Rain = 0
KQU1 181446Z 35003KT 11/04 A2979 RMK A01 T01070041  RH  064%=      5-min Rain = 0
KQU1 181447Z 35004KT 11/04 A2979 RMK A01 T01080041  RH  063%=      5-min Rain = 0
KQU1 181448Z 35004KT 11/04 A2979 RMK A01 T01080042  RH  063%=      5-min Rain = 0
KQU1 181449Z 35004KT 11/04 A2979 RMK A01 T01090043  RH  064%=      5-min Rain = 0
KQU1 181450Z 35004KT 11/04 A2979 RMK A01 T01090043  RH  064%=      5-min Rain = 0
KQU1 181451Z 35004KT 11/04 A2979 RMK A01 T01100040  RH  062%=      5-min Rain = 0
KQU1 181452Z 35004KT 11/04 A2979 RMK A01 T01090039  RH  062%=      5-min Rain = 0
KQU1 181453Z 35004KT 11/04 A2979 RMK A01 T01090040  RH  062%=      5-min Rain = 0
KQU1 181454Z 35004KT 11/04 A298 RMK A01 T01090041  RH  063%=      5-min Rain = 0
KQU1 181455Z 35004KT 11/04 A298 RMK A01 T01100043  RH  063%=      5-min Rain = 0
KQU1 181456Z 35004KT 11/04 A298 RMK A01 T01100043  RH  063%=      5-min Rain = 0
KQU1 181457Z 36004KT 11/05 A298 RMK A01 T01110045  RH  064%=      5-min Rain = 0
KQU1 181458Z 00003KT 11/05 A298 RMK A01 T01110045  RH  064%=      5-min Rain = 0
KQU1 181459Z 01003KT 11/05 A298 RMK A01 T01120047  RH  064%=      5-min Rain = 0
KQU1 181500Z 00003KT 11/05 A298 RMK A01 T01120049  RH  065%=      5-min Rain = 0
KQU1 181501Z 00004KT 11/05 A298 RMK A01 T01130047  RH  064%=      5-min Rain = 0
KQU1 181502Z 00003KT 11/05 A298 RMK A01 T01130047  RH  064%=      5-min Rain = 0
KQU1 181503Z 00003KT 11/05 A298 RMK A01 T01130048  RH  064%=      5-min Rain = 0
KQU1 181504Z 00003KT 11/05 A298 RMK A01 T01120049  RH  065%=      5-min Rain = 0
KQU1 181505Z 00003KT 11/05 A298 RMK A01 T01120049  RH  065%=      5-min Rain = 0
KQU1 181506Z 01003KT 11/05 A298 RMK A01 T01120050  RH  066%=      5-min Rain = 0
KQU1 181507Z 01003KT 11/05 A298 RMK A01 T01110051  RH  066%=      5-min Rain = 0
KQU1 181508Z 01004KT 11/05 A298 RMK A01 T01110050  RH  066%=      5-min Rain = 0
KQU1 181509Z 01004KT 11/05 A298 RMK A01 T01100050  RH  066%=      5-min Rain = 0
KQU1 181510Z 01003KT 11/05 A298 RMK A01 T01100050  RH  067%=      5-min Rain = 0
KQU1 181511Z 01003KT 11/05 A298 RMK A01 T01100050  RH  066%=      5-min Rain = 0
KQU1 181512Z 01001KT 11/05 A298 RMK A01 T01100051  RH  067%=      5-min Rain = 0
KQU1 181513Z 02001KT 11/05 A298 RMK A01 T01110049  RH  066%=      5-min Rain = 0
KQU1 181514Z 00001KT 11/05 A298 RMK A01 T01120050  RH  066%=      5-min Rain = 0
KQU1 181515Z 02003KT 11/05 A2981 RMK A01 T01130051  RH  066%=      5-min Rain = 0
KQU1 181516Z 01002KT 11/05 A2981 RMK A01 T01140052  RH  066%=      5-min Rain = 0
KQU1 181517Z 36001KT 11/05 A2981 RMK A01 T01140051  RH  065%=      5-min Rain = 0
KQU1 181518Z 02002KT 11/05 A2981 RMK A01 T01140050  RH  065%=      5-min Rain = 0
KQU1 181519Z 00001KT 12/05 A2981 RMK A01 T01150052  RH  066%=      5-min Rain = 0
KQU1 181520Z 35002KT 12/05 A2981 RMK A01 T01150052  RH  065%=      5-min Rain = 0
KQU1 181521Z 01003KT 12/05 A2981 RMK A01 T01160050  RH  064%=      5-min Rain = 0
KQU1 181522Z 02004KT 12/05 A2981 RMK A01 T01150050  RH  064%=      5-min Rain = 0
KQU1 181523Z 02003KT 11/05 A2981 RMK A01 T01140050  RH  065%=      5-min Rain = 0
KQU1 181524Z 02003KT 11/05 A2981 RMK A01 T01130050  RH  065%=      5-min Rain = 0
KQU1 181525Z 03002KT 11/05 A2982 RMK A01 T01120052  RH  066%=      5-min Rain = 0
KQU1 181526Z 04002KT 11/05 A2982 RMK A01 T01130053  RH  066%=      5-min Rain = 0
KQU1 181527Z 05003KT 11/05 A2982 RMK A01 T01140054  RH  067%=      5-min Rain = 0
KQU1 181528Z 05003KT 11/05 A2982 RMK A01 T01140054  RH  067%=      5-min Rain = 0
KQU1 181529Z 04003KT 11/05 A2982 RMK A01 T01140053  RH  066%=      5-min Rain = 0
KQU1 181530Z 03002KT 11/05 A2982 RMK A01 T01130052  RH  066%=      5-min Rain = 0
KQU1 181531Z 03003KT 11/05 A2982 RMK A01 T01120051  RH  066%=      5-min Rain = 0
KQU1 181532Z 03002KT 11/05 A2982 RMK A01 T01120052  RH  067%=      5-min Rain = 0
KQU1 181533Z 04002KT 11/05 A2982 RMK A01 T01110052  RH  067%=      5-min Rain = 0
KQU1 181534Z 04001KT 11/05 A2982 RMK A01 T01120052  RH  067%=      5-min Rain = 0
KQU1 181535Z 02002KT 11/05 A2982 RMK A01 T01120053  RH  067%=      5-min Rain = 0
KQU1 181536Z 02002KT 11/05 A2983 RMK A01 T01120052  RH  066%=      5-min Rain = 0
KQU1 181537Z 03002KT 11/05 A2983 RMK A01 T01120051  RH  066%=      5-min Rain = 0
KQU1 181538Z 03002KT 11/05 A2982 RMK A01 T01110051  RH  067%=      5-min Rain = 0
KQU1 181539Z 03002KT 11/05 A2982 RMK A01 T01110050  RH  066%=      5-min Rain = 0
KQU1 181540Z 04003KT 11/05 A2982 RMK A01 T01120051  RH  066%=      5-min Rain = 0
KQU1 181541Z 04004KT 11/05 A2982 RMK A01 T01120050  RH  066%=      5-min Rain = 0
KQU1 181542Z 04003KT 11/05 A2982 RMK A01 T01120051  RH  066%=      5-min Rain = 0
KQU1 181543Z 02003KT 11/05 A2982 RMK A01 T01130051  RH  066%=      5-min Rain = 0
KQU1 181544Z 03003KT 11/05 A2982 RMK A01 T01130052  RH  066%=      5-min Rain = 0
KQU1 181545Z 03003KT 11/05 A2982 RMK A01 T01140052  RH  066%=      5-min Rain = 0
KQU1 181546Z 03002KT 12/05 A2982 RMK A01 T01150051  RH  065%=      5-min Rain = 0
KQU1 181547Z 04002KT 12/05 A2982 RMK A01 T01150052  RH  065%=      5-min Rain = 0
KQU1 181548Z 03003KT 12/05 A2983 RMK A01 T01160052  RH  065%=      5-min Rain = 0
KQU1 181549Z 03003KT 12/05 A2983 RMK A01 T01170053  RH  065%=      5-min Rain = 0
KQU1 181550Z 04002KT 12/05 A2983 RMK A01 T01180053  RH  064%=      5-min Rain = 0
KQU1 181551Z 02003KT 12/05 A2983 RMK A01 T01190052  RH  063%=      5-min Rain = 0
KQU1 181552Z 02002KT 12/05 A2983 RMK A01 T01200052  RH  063%=      5-min Rain = 0
KQU1 181553Z 02002KT 12/05 A2983 RMK A01 T01200054  RH  064%=      5-min Rain = 0
KQU1 181554Z 02003KT 12/05 A2983 RMK A01 T01210052  RH  062%=      5-min Rain = 0
KQU1 181555Z 02002KT 12/05 A2983 RMK A01 T01220051  RH  062%=      5-min Rain = 0
KQU1 181556Z 02003KT 12/05 A2983 RMK A01 T01220051  RH  062%=      5-min Rain = 0
KQU1 181557Z 01002KT 12/05 A2983 RMK A01 T01220053  RH  063%=      5-min Rain = 0
KQU1 181558Z 36002KT 12/05 A2983 RMK A01 T01230053  RH  062%=      5-min Rain = 0
KQU1 181559Z 01001KT 12/05 A2983 RMK A01 T01230052  RH  062%=      5-min Rain = 0
KQU1 181600Z 35001KT 12/05 A2983 RMK A01 T01240053  RH  062%=      5-min Rain = 0
KQU1 181601Z 33000KT 13/05 A2983 RMK A01 T01250053  RH  062%=      5-min Rain = 0
KQU1 181602Z 34001KT 13/05 A2983 RMK A01 T01260054  RH  062%=      5-min Rain = 0
KQU1 181603Z 02000KT 13/05 A2983 RMK A01 T01270054  RH  061%=      5-min Rain = 0
KQU1 181604Z 02001KT 13/05 A2983 RMK A01 T01280053  RH  061%=      5-min Rain = 0
KQU1 181605Z 01000KT 13/05 A2983 RMK A01 T01280054  RH  061%=      5-min Rain = 0
KQU1 181606Z 05001KT 13/05 A2983 RMK A01 T01290054  RH  060%=      5-min Rain = 0
KQU1 181607Z 05002KT 13/05 A2983 RMK A01 T01300054  RH  060%=      5-min Rain = 0
KQU1 181608Z 04001KT 13/05 A2983 RMK A01 T01310053  RH  059%=      5-min Rain = 0
KQU1 181609Z 05001KT 13/06 A2983 RMK A01 T01320056  RH  060%=      5-min Rain = 0
KQU1 181610Z 02001KT 13/06 A2983 RMK A01 T01340056  RH  059%=      5-min Rain = 0
KQU1 181611Z 04001KT 14/06 A2983 RMK A01 T01360058  RH  059%=      5-min Rain = 0
KQU1 181612Z 04002KT 14/05 A2983 RMK A01 T01370054  RH  057%=      5-min Rain = 0
KQU1 181613Z 02002KT 14/05 A2983 RMK A01 T01370053  RH  057%=      5-min Rain = 0
KQU1 181614Z 02002KT 14/05 A2983 RMK A01 T01360053  RH  057%=      5-min Rain = 0
KQU1 181615Z 02001KT 14/05 A2983 RMK A01 T01350054  RH  058%=      5-min Rain = 0
KQU1 181616Z 02002KT 14/05 A2983 RMK A01 T01350053  RH  057%=      5-min Rain = 0
KQU1 181617Z 02002KT 14/05 A2983 RMK A01 T01350053  RH  057%=      5-min Rain = 0
KQU1 181618Z 02002KT 14/05 A2983 RMK A01 T01350052  RH  057%=      5-min Rain = 0
KQU1 181619Z 02002KT 13/05 A2983 RMK A01 T01340052  RH  057%=      5-min Rain = 0
KQU1 181620Z 01003KT 14/06 A2983 RMK A01 T01350055  RH  058%=      5-min Rain = 0
KQU1 181621Z 02004KT 14/05 A2983 RMK A01 T01370054  RH  057%=      5-min Rain = 0
KQU1 181622Z 03003KT 14/05 A2983 RMK A01 T01370053  RH  057%=      5-min Rain = 0
KQU1 181623Z 01002KT 14/05 A2983 RMK A01 T01380054  RH  057%=      5-min Rain = 0
KQU1 181624Z 03002KT 14/05 A2983 RMK A01 T01380052  RH  056%=      5-min Rain = 0
KQU1 181625Z 03004KT 14/05 A2983 RMK A01 T01380053  RH  057%=      5-min Rain = 0
KQU1 181626Z 01004KT 14/05 A2983 RMK A01 T01390053  RH  056%=      5-min Rain = 0
KQU1 181627Z 02003KT 14/05 A2983 RMK A01 T01390053  RH  056%=      5-min Rain = 0
KQU1 181628Z 03002KT 14/05 A2983 RMK A01 T01400053  RH  056%=      5-min Rain = 0
KQU1 181629Z 03004KT 14/05 A2983 RMK A01 T01400054  RH  056%=      5-min Rain = 0
KQU1 181630Z 02003KT 14/05 A2983 RMK A01 T01400054  RH  056%=      5-min Rain = 0
KQU1 181631Z 02003KT 14/05 A2983 RMK A01 T01400054  RH  056%=      5-min Rain = 0
KQU1 181632Z 04003KT 14/06 A2983 RMK A01 T01400055  RH  057%=      5-min Rain = 0
KQU1 181633Z 03003KT 14/05 A2983 RMK A01 T01410053  RH  056%=      5-min Rain = 0
KQU1 181634Z 01004KT 14/05 A2983 RMK A01 T01410053  RH  055%=      5-min Rain = 0
KQU1 181635Z 03003KT 14/06 A2983 RMK A01 T01410055  RH  056%=      5-min Rain = 0
KQU1 181636Z 04005KT 14/06 A2983 RMK A01 T01420055  RH  056%=      5-min Rain = 0
KQU1 181637Z 04005KT 14/05 A2983 RMK A01 T01420053  RH  055%=      5-min Rain = 0
KQU1 181638Z 04004KT 14/05 A2983 RMK A01 T01420052  RH  055%=      5-min Rain = 0
KQU1 181639Z 04005KT 14/05 A2983 RMK A01 T01420052  RH  054%=      5-min Rain = 0
KQU1 181640Z 04006KT 14/05 A2983 RMK A01 T01420050  RH  054%=      5-min Rain = 0
KQU1 181641Z 03006KT 14/05 A2983 RMK A01 T01420050  RH  054%=      5-min Rain = 0
KQU1 181642Z 03004KT 14/05 A2983 RMK A01 T01420052  RH  055%=      5-min Rain = 0
KQU1 181643Z 02005KT 14/05 A2983 RMK A01 T01440053  RH  055%=      5-min Rain = 0
KQU1 181644Z 01003KT 15/05 A2983 RMK A01 T01450053  RH  054%=      5-min Rain = 0
KQU1 181645Z 03004KT 15/05 A2983 RMK A01 T01450054  RH  054%=      5-min Rain = 0
KQU1 181646Z 01002KT 15/05 A2983 RMK A01 T01450054  RH  054%=      5-min Rain = 0
KQU1 181647Z 04002KT 15/06 A2983 RMK A01 T01460056  RH  055%=      5-min Rain = 0
KQU1 181648Z 04004KT 15/05 A2983 RMK A01 T01480053  RH  053%=      5-min Rain = 0
KQU1 181649Z 03003KT 15/05 A2983 RMK A01 T01490054  RH  053%=      5-min Rain = 0
KQU1 181650Z 04003KT 15/05 A2983 RMK A01 T01500053  RH  052%=      5-min Rain = 0
KQU1 181651Z 04004KT 15/05 A2983 RMK A01 T01500053  RH  052%=      5-min Rain = 0
KQU1 181652Z 03005KT 15/05 A2983 RMK A01 T01520053  RH  052%=      5-min Rain = 0
KQU1 181653Z 02005KT 15/05 A2983 RMK A01 T01520050  RH  050%=      5-min Rain = 0
KQU1 181654Z 04005KT 15/05 A2983 RMK A01 T01520052  RH  051%=      5-min Rain = 0
KQU1 181655Z 04004KT 15/05 A2983 RMK A01 T01520051  RH  051%=      5-min Rain = 0
KQU1 181656Z 04005KT 15/05 A2983 RMK A01 T01520051  RH  051%=      5-min Rain = 0
KQU1 181657Z 04005KT 15/05 A2983 RMK A01 T01520050  RH  050%=      5-min Rain = 0
KQU1 181658Z 04005KT 15/05 A2983 RMK A01 T01530051  RH  051%=      5-min Rain = 0
KQU1 181659Z 04006KT 15/05 A2983 RMK A01 T01530048  RH  049%=      5-min Rain = 0
KQU1 181700Z 03005KT 15/05 A2983 RMK A01 T01520048  RH  050%=      5-min Rain = 0
KQU1 181701Z 03005KT 15/05 A2983 RMK A01 T01520051  RH  051%=      5-min Rain = 0
KQU1 181702Z 03004KT 15/05 A2983 RMK A01 T01530051  RH  051%=      5-min Rain = 0
KQU1 181703Z 05003KT 16/05 A2983 RMK A01 T01550052  RH  050%=      5-min Rain = 0
KQU1 181704Z 03005KT 16/05 A2983 RMK A01 T01560052  RH  050%=      5-min Rain = 0
KQU1 181705Z 03004KT 16/05 A2983 RMK A01 T01580052  RH  049%=      5-min Rain = 0
KQU1 181706Z 03005KT 16/05 A2983 RMK A01 T01590052  RH  049%=      5-min Rain = 0
KQU1 181707Z 03005KT 16/05 A2983 RMK A01 T01590054  RH  050%=      5-min Rain = 0
KQU1 181708Z 04004KT 16/05 A2983 RMK A01 T01590050  RH  048%=      5-min Rain = 0
KQU1 181709Z 03004KT 16/05 A2983 RMK A01 T01590050  RH  048%=      5-min Rain = 0
KQU1 181710Z 04003KT 16/05 A2983 RMK A01 T01590049  RH  048%=      5-min Rain = 0
KQU1 181711Z 02005KT 16/05 A2983 RMK A01 T01590050  RH  048%=      5-min Rain = 0
KQU1 181712Z 05004KT 16/05 A2983 RMK A01 T01600047  RH  047%=      5-min Rain = 0
KQU1 181713Z 03005KT 16/05 A2983 RMK A01 T01580046  RH  047%=      5-min Rain = 0
KQU1 181714Z 02003KT 16/05 A2983 RMK A01 T01580049  RH  048%=      5-min Rain = 0
KQU1 181715Z 04004KT 16/05 A2983 RMK A01 T01580048  RH  048%=      5-min Rain = 0
KQU1 181716Z 03005KT 16/05 A2983 RMK A01 T01580048  RH  048%=      5-min Rain = 0
KQU1 181717Z 04004KT 16/05 A2983 RMK A01 T01580049  RH  048%=      5-min Rain = 0
KQU1 181718Z 04003KT 16/05 A2983 RMK A01 T01570050  RH  049%=      5-min Rain = 0
KQU1 181719Z 04005KT 16/05 A2983 RMK A01 T01580050  RH  049%=      5-min Rain = 0
KQU1 181720Z 03006KT 16/05 A2983 RMK A01 T01570046  RH  047%=      5-min Rain = 0
KQU1 181721Z 03004KT 16/04 A2983 RMK A01 T01570044  RH  047%=      5-min Rain = 0
KQU1 181722Z 02003KT 16/05 A2983 RMK A01 T01570047  RH  048%=      5-min Rain = 0
KQU1 181723Z 03003KT 16/05 A2983 RMK A01 T01570049  RH  049%=      5-min Rain = 0
KQU1 181724Z 03004KT 16/05 A2983 RMK A01 T01580049  RH  048%=      5-min Rain = 0
KQU1 181725Z 02005KT 16/05 A2983 RMK A01 T01580048  RH  048%=      5-min Rain = 0
KQU1 181726Z 04005KT 16/04 A2983 RMK A01 T01580044  RH  046%=      5-min Rain = 0
KQU1 181727Z 04006KT 16/04 A2982 RMK A01 T01580042  RH  046%=      5-min Rain = 0
KQU1 181728Z 03005KT 16/04 A2982 RMK A01 T01570043  RH  047%=      5-min Rain = 0
KQU1 181729Z 03005KT 16/04 A2982 RMK A01 T01570044  RH  047%=      5-min Rain = 0
KQU1 181730Z 03005KT 16/04 A2983 RMK A01 T01570044  RH  047%=      5-min Rain = 0
KQU1 181731Z 03003KT 16/05 A2983 RMK A01 T01570045  RH  047%=      5-min Rain = 0
KQU1 181732Z 04003KT 16/05 A2983 RMK A01 T01580045  RH  047%=      5-min Rain = 0
KQU1 181733Z 03003KT 16/05 A2983 RMK A01 T01580046  RH  047%=      5-min Rain = 0
KQU1 181734Z 02003KT 16/05 A2983 RMK A01 T01590046  RH  047%=      5-min Rain = 0
KQU1 181735Z 02003KT 16/05 A2983 RMK A01 T01600047  RH  047%=      5-min Rain = 0
KQU1 181736Z 02004KT 16/05 A2983 RMK A01 T01610048  RH  047%=      5-min Rain = 0
KQU1 181737Z 03004KT 16/05 A2983 RMK A01 T01620047  RH  047%=      5-min Rain = 0
KQU1 181738Z 02004KT 16/05 A2983 RMK A01 T01630048  RH  046%=      5-min Rain = 0
KQU1 181739Z 02004KT 16/05 A2983 RMK A01 T01630049  RH  047%=      5-min Rain = 0
KQU1 181740Z 03004KT 16/05 A2983 RMK A01 T01640050  RH  047%=      5-min Rain = 0
KQU1 181741Z 02003KT 16/05 A2983 RMK A01 T01630049  RH  047%=      5-min Rain = 0
KQU1 181742Z 02004KT 16/05 A2983 RMK A01 T01630050  RH  047%=      5-min Rain = 0
KQU1 181743Z 03004KT 16/05 A2983 RMK A01 T01630051  RH  047%=      5-min Rain = 0
KQU1 181744Z 04003KT 16/05 A2983 RMK A01 T01620051  RH  048%=      5-min Rain = 0
KQU1 181745Z 03004KT 16/05 A2983 RMK A01 T01620051  RH  048%=      5-min Rain = 0
KQU1 181746Z 03004KT 16/05 A2983 RMK A01 T01620052  RH  048%=      5-min Rain = 0
KQU1 181747Z 02003KT 16/05 A2983 RMK A01 T01630053  RH  048%=      5-min Rain = 0
KQU1 181748Z 02003KT 16/05 A2983 RMK A01 T01630052  RH  048%=      5-min Rain = 0
KQU1 181749Z 03001KT 16/05 A2983 RMK A01 T01640053  RH  048%=      5-min Rain = 0
KQU1 181750Z 02002KT 17/05 A2983 RMK A01 T01650052  RH  047%=      5-min Rain = 0
KQU1 181751Z 04002KT 17/05 A2983 RMK A01 T01650052  RH  047%=      5-min Rain = 0
KQU1 181752Z 04004KT 17/05 A2983 RMK A01 T01660051  RH  046%=      5-min Rain = 0
KQU1 181753Z 07004KT 17/05 A2983 RMK A01 T01670049  RH  046%=      5-min Rain = 0
KQU1 181754Z 08004KT 17/05 A2983 RMK A01 T01670047  RH  045%=      5-min Rain = 0
KQU1 181755Z 09003KT 17/05 A2983 RMK A01 T01680045  RH  044%=      5-min Rain = 0
KQU1 181756Z 08003KT 17/05 A2983 RMK A01 T01690050  RH  045%=      5-min Rain = 0
KQU1 181757Z 09005KT 17/05 A2983 RMK A01 T01700051  RH  045%=      5-min Rain = 0
KQU1 181758Z 07003KT 17/05 A2983 RMK A01 T01710049  RH  044%=      5-min Rain = 0
KQU1 181759Z 09002KT 17/05 A2983 RMK A01 T01710048  RH  044%=      5-min Rain = 0
KQU1 181800Z 11003KT 17/04 A2983 RMK A01 T01710044  RH  043%=      5-min Rain = 0
KQU1 181801Z 07004KT 17/05 A2983 RMK A01 T01710045  RH  043%=      5-min Rain = 0
KQU1 181802Z 06003KT 17/04 A2983 RMK A01 T01690043  RH  043%=      5-min Rain = 0
KQU1 181803Z 07002KT 17/05 A2983 RMK A01 T01690046  RH  044%=      5-min Rain = 0
KQU1 181804Z 07003KT 17/05 A2983 RMK A01 T01700047  RH  044%=      5-min Rain = 0
KQU1 181805Z 08003KT 17/05 A2983 RMK A01 T01710049  RH  045%=      5-min Rain = 0
KQU1 181806Z 11003KT 17/05 A2983 RMK A01 T01710047  RH  044%=      5-min Rain = 0
KQU1 181807Z 07002KT 17/05 A2983 RMK A01 T01730051  RH  044%=      5-min Rain = 0
KQU1 181808Z 04003KT 17/05 A2983 RMK A01 T01740047  RH  043%=      5-min Rain = 0
KQU1 181809Z 06006KT 17/05 A2983 RMK A01 T01730048  RH  044%=      5-min Rain = 0
KQU1 181810Z 06004KT 17/05 A2983 RMK A01 T01710049  RH  044%=      5-min Rain = 0
KQU1 181811Z 08002KT 17/05 A2983 RMK A01 T01710048  RH  044%=      5-min Rain = 0
KQU1 181812Z 03002KT 17/05 A2983 RMK A01 T01700050  RH  045%=      5-min Rain = 0
KQU1 181813Z 06004KT 17/05 A2983 RMK A01 T01700052  RH  046%=      5-min Rain = 0
KQU1 181814Z 08006KT 17/05 A2983 RMK A01 T01700053  RH  046%=      5-min Rain = 0
KQU1 181815Z 10005KT 17/05 A2983 RMK A01 T01700053  RH  046%=      5-min Rain = 0
KQU1 181816Z 08004KT 17/05 A2983 RMK A01 T01700053  RH  046%=      5-min Rain = 0
KQU1 181817Z 08005KT 17/05 A2983 RMK A01 T01700052  RH  046%=      5-min Rain = 0
KQU1 181818Z 08005KT 17/05 A2983 RMK A01 T01690054  RH  046%=      5-min Rain = 0
KQU1 181819Z 08005KT 17/06 A2983 RMK A01 T01690055  RH  047%=      5-min Rain = 0
KQU1 181820Z 09005KT 17/06 A2983 RMK A01 T01700055  RH  047%=      5-min Rain = 0
KQU1 181821Z 10005KT 17/05 A2983 RMK A01 T01690054  RH  046%=      5-min Rain = 0
KQU1 181822Z 10007KT 17/05 A2982 RMK A01 T01690053  RH  046%=      5-min Rain = 0
KQU1 181823Z 10007KT 17/05 A2982 RMK A01 T01690053  RH  046%=      5-min Rain = 0
KQU1 181824Z 09005KT 17/06 A2982 RMK A01 T01690056  RH  047%=      5-min Rain = 0
KQU1 181825Z 10004KT 17/06 A2982 RMK A01 T01690056  RH  047%=      5-min Rain = 0
KQU1 181826Z 11004KT 17/06 A2982 RMK A01 T01690058  RH  048%=      5-min Rain = 0
KQU1 181827Z 10004KT 17/06 A2982 RMK A01 T01690059  RH  048%=      5-min Rain = 0
KQU1 181828Z 11004KT 17/06 A2983 RMK A01 T01700060  RH  048%=      5-min Rain = 0
KQU1 181829Z 12004KT 17/06 A2983 RMK A01 T01710060  RH  048%=      5-min Rain = 0
KQU1 181830Z 13002KT 17/06 A2983 RMK A01 T01710058  RH  047%=      5-min Rain = 0
KQU1 181831Z 12002KT 17/06 A2983 RMK A01 T01720059  RH  047%=      5-min Rain = 0
KQU1 181832Z 12002KT 17/06 A2983 RMK A01 T01720061  RH  048%=      5-min Rain = 0
KQU1 181833Z 09003KT 17/06 A2983 RMK A01 T01740064  RH  048%=      5-min Rain = 0
KQU1 181834Z 08003KT 18/06 A2983 RMK A01 T01750062  RH  047%=      5-min Rain = 0
KQU1 181835Z 10005KT 18/07 A2983 RMK A01 T01760067  RH  049%=      5-min Rain = 0
KQU1 181836Z 10005KT 18/07 A2983 RMK A01 T01780066  RH  048%=      5-min Rain = 0
KQU1 181837Z 09004KT 18/07 A2983 RMK A01 T01790067  RH  048%=      5-min Rain = 0
KQU1 181838Z 08004KT 18/07 A2983 RMK A01 T01790069  RH  048%=      5-min Rain = 0
KQU1 181839Z 10004KT 18/07 A2983 RMK A01 T01800065  RH  047%=      5-min Rain = 0
KQU1 181840Z 11006KT 18/06 A2983 RMK A01 T01810063  RH  046%=      5-min Rain = 0
KQU1 181841Z 12004KT 18/06 A2983 RMK A01 T01820062  RH  045%=      5-min Rain = 0
KQU1 181842Z 11006KT 18/06 A2983 RMK A01 T01830063  RH  045%=      5-min Rain = 0
KQU1 181843Z 11006KT 18/07 A2983 RMK A01 T01830065  RH  046%=      5-min Rain = 0
KQU1 181844Z 10002KT 18/06 A2983 RMK A01 T01820064  RH  046%=      5-min Rain = 0
KQU1 181845Z 11003KT 18/07 A2983 RMK A01 T01830069  RH  047%=      5-min Rain = 0
KQU1 181846Z 14004KT 19/07 A2982 RMK A01 T01850069  RH  047%=      5-min Rain = 0
KQU1 181847Z 14006KT 19/06 A2982 RMK A01 T01870064  RH  045%=      5-min Rain = 0
KQU1 181848Z 14004KT 19/06 A2982 RMK A01 T01870059  RH  043%=      5-min Rain = 0
KQU1 181849Z 16004KT 19/07 A2982 RMK A01 T01870067  RH  046%=      5-min Rain = 0
KQU1 181850Z 15006KT 19/07 A2982 RMK A01 T01860066  RH  045%=      5-min Rain = 0
KQU1 181851Z 13006KT 19/07 A2982 RMK A01 T01870068  RH  046%=      5-min Rain = 0
KQU1 181852Z 11006KT 19/07 A2982 RMK A01 T01890068  RH  045%=      5-min Rain = 0
KQU1 181853Z 13005KT 19/07 A2982 RMK A01 T01890067  RH  045%=      5-min Rain = 0
KQU1 181854Z 14005KT 19/07 A2982 RMK A01 T01890068  RH  045%=      5-min Rain = 0
KQU1 181855Z 12004KT 19/07 A2982 RMK A01 T01900072  RH  046%=      5-min Rain = 0
KQU1 181856Z 12006KT 19/07 A2982 RMK A01 T01910071  RH  046%=      5-min Rain = 0
KQU1 181857Z 12006KT 19/07 A2982 RMK A01 T01930072  RH  045%=      5-min Rain = 0
KQU1 181858Z 12006KT 19/07 A2982 RMK A01 T01920066  RH  044%=      5-min Rain = 0
KQU1 181859Z 10005KT 19/07 A2982 RMK A01 T01920067  RH  044%=      5-min Rain = 0
KQU1 181900Z 14007KT 19/06 A2982 RMK A01 T01910063  RH  043%=      5-min Rain = 0
KQU1 181901Z 14008KT 19/06 A2982 RMK A01 T01920061  RH  042%=      5-min Rain = 0
KQU1 181902Z 12007KT 19/06 A2982 RMK A01 T01920059  RH  042%=      5-min Rain = 0
KQU1 181903Z 11005KT 19/05 A2982 RMK A01 T01910054  RH  041%=      5-min Rain = 0
KQU1 181904Z 14008KT 19/06 A2982 RMK A01 T01900058  RH  042%=      5-min Rain = 0
KQU1 181905Z 14007KT 19/06 A2982 RMK A01 T01890060  RH  043%=      5-min Rain = 0
KQU1 181906Z 12006KT 19/06 A2982 RMK A01 T01900062  RH  043%=      5-min Rain = 0
KQU1 181907Z 09005KT 19/06 A2982 RMK A01 T01890058  RH  042%=      5-min Rain = 0
KQU1 181908Z 14007KT 19/06 A2982 RMK A01 T01870060  RH  043%=      5-min Rain = 0
KQU1 181909Z 13006KT 19/06 A2982 RMK A01 T01870060  RH  044%=      5-min Rain = 0
KQU1 181910Z 15007KT 19/06 A2982 RMK A01 T01870058  RH  043%=      5-min Rain = 0
KQU1 181911Z 11008KT 19/06 A2982 RMK A01 T01870058  RH  043%=      5-min Rain = 0
KQU1 181912Z 12008KT 19/05 A2982 RMK A01 T01870054  RH  042%=      5-min Rain = 0
KQU1 181913Z 12005KT 19/06 A2982 RMK A01 T01870056  RH  042%=      5-min Rain = 0
KQU1 181914Z 10004KT 19/06 A2982 RMK A01 T01880058  RH  043%=      5-min Rain = 0
KQU1 181915Z 12007KT 19/06 A2982 RMK A01 T01880060  RH  043%=      5-min Rain = 0
KQU1 181916Z 14007KT 19/06 A2982 RMK A01 T01880059  RH  043%=      5-min Rain = 0
KQU1 181917Z 14008KT 19/06 A2982 RMK A01 T01890061  RH  043%=      5-min Rain = 0
KQU1 181918Z 13006KT 19/06 A2982 RMK A01 T01890063  RH  044%=      5-min Rain = 0
KQU1 181919Z 12006KT 19/06 A2982 RMK A01 T01900058  RH  042%=      5-min Rain = 0
KQU1 181920Z 12005KT 19/06 A2982 RMK A01 T01890061  RH  043%=      5-min Rain = 0
KQU1 181921Z 13005KT 19/06 A2981 RMK A01 T01900056  RH  042%=      5-min Rain = 0
KQU1 181922Z 14008KT 19/05 A2981 RMK A01 T01910050  RH  040%=      5-min Rain = 0
KQU1 181923Z 13008KT 19/05 A2981 RMK A01 T01920047  RH  038%=      5-min Rain = 0
KQU1 181924Z 12007KT 19/05 A2981 RMK A01 T01920045  RH  038%=      5-min Rain = 0
KQU1 181925Z 14008KT 19/05 A2981 RMK A01 T01900047  RH  039%=      5-min Rain = 0
KQU1 181926Z 12007KT 19/05 A2981 RMK A01 T01900053  RH  041%=      5-min Rain = 0
KQU1 181927Z 11008KT 19/06 A2981 RMK A01 T01900057  RH  042%=      5-min Rain = 0
KQU1 181928Z 12006KT 19/05 A2981 RMK A01 T01910052  RH  040%=      5-min Rain = 0
KQU1 181929Z 12008KT 19/05 A2981 RMK A01 T01920051  RH  040%=      5-min Rain = 0
KQU1 181930Z 12006KT 19/05 A2981 RMK A01 T01920050  RH  039%=      5-min Rain = 0
KQU1 181931Z 14009KT 19/05 A2981 RMK A01 T01930047  RH  038%=      5-min Rain = 0
KQU1 181932Z 13009KT 19/04 A2981 RMK A01 T01930044  RH  037%=      5-min Rain = 0
KQU1 181933Z 13007KT 19/04 A2981 RMK A01 T01930044  RH  037%=      5-min Rain = 0
KQU1 181934Z 12008KT 19/04 A2981 RMK A01 T01920042  RH  037%=      5-min Rain = 0
KQU1 181935Z 11010KT 19/04 A298 RMK A01 T01910035  RH  035%=      5-min Rain = 0
KQU1 181936Z 12008KT 19/03 A298 RMK A01 T01900031  RH  035%=      5-min Rain = 0
KQU1 181937Z 12007KT 19/04 A298 RMK A01 T01890039  RH  037%=      5-min Rain = 0
KQU1 181938Z 12008KT 19/05 A298 RMK A01 T01900045  RH  038%=      5-min Rain = 0
KQU1 181939Z 12006KT 19/05 A298 RMK A01 T01910047  RH  039%=      5-min Rain = 0
KQU1 181940Z 12007KT 19/04 A298 RMK A01 T01910044  RH  038%=      5-min Rain = 0
KQU1 181941Z 12008KT 19/04 A298 RMK A01 T01910042  RH  037%=      5-min Rain = 0
KQU1 181942Z 12009KT 19/04 A298 RMK A01 T01910040  RH  037%=      5-min Rain = 0
KQU1 181943Z 12007KT 19/04 A298 RMK A01 T01920037  RH  036%=      5-min Rain = 0
KQU1 181944Z 12007KT 19/04 A298 RMK A01 T01910039  RH  037%=      5-min Rain = 0
KQU1 181945Z 12008KT 19/04 A298 RMK A01 T01920040  RH  037%=      5-min Rain = 0
KQU1 181946Z 11009KT 19/04 A298 RMK A01 T01920039  RH  036%=      5-min Rain = 0
KQU1 181947Z 13006KT 19/04 A298 RMK A01 T01920039  RH  036%=      5-min Rain = 0
KQU1 181948Z 12007KT 19/04 A298 RMK A01 T01920041  RH  037%=      5-min Rain = 0
KQU1 181949Z 13007KT 19/04 A298 RMK A01 T01930037  RH  036%=      5-min Rain = 0
KQU1 181950Z 11008KT 19/04 A2979 RMK A01 T01930036  RH  035%=      5-min Rain = 0
KQU1 181951Z 12008KT 19/04 A298 RMK A01 T01920036  RH  036%=      5-min Rain = 0
KQU1 181952Z 11008KT 19/04 A2979 RMK A01 T01920040  RH  037%=      5-min Rain = 0
KQU1 181953Z 11008KT 19/04 A2979 RMK A01 T01920042  RH  037%=      5-min Rain = 0
KQU1 181954Z 13008KT 19/04 A2979 RMK A01 T01930037  RH  036%=      5-min Rain = 0
KQU1 181955Z 12010KT 19/04 A2979 RMK A01 T01930039  RH  036%=      5-min Rain = 0
KQU1 181956Z 10010KT 19/04 A2979 RMK A01 T01930042  RH  037%=      5-min Rain = 0
KQU1 181957Z 12009KT 19/04 A2979 RMK A01 T01920041  RH  037%=      5-min Rain = 0
KQU1 181958Z 12009KT 19/04 A2979 RMK A01 T01920038  RH  036%=      5-min Rain = 0
KQU1 181959Z 12008KT 19/04 A2979 RMK A01 T01920042  RH  037%=      5-min Rain = 0
KQU1 182000Z 12008KT 19/04 A2979 RMK A01 T01940040  RH  036%=      5-min Rain = 0
KQU1 182001Z 11008KT 20/04 A2979 RMK A01 T01960040  RH  036%=      5-min Rain = 0
KQU1 182002Z 12008KT 20/04 A298 RMK A01 T01970039  RH  035%=      5-min Rain = 0
KQU1 182003Z 13008KT 20/04 A298 RMK A01 T01980040  RH  035%=      5-min Rain = 0
KQU1 182004Z 13008KT 20/04 A298 RMK A01 T01970041  RH  036%=      5-min Rain = 0
KQU1 182005Z 12008KT 20/04 A298 RMK A01 T01970042  RH  036%=      5-min Rain = 0
KQU1 182006Z 12007KT 20/04 A2979 RMK A01 T01980044  RH  036%=      5-min Rain = 0
KQU1 182007Z 14007KT 20/05 A2979 RMK A01 T01980046  RH  037%=      5-min Rain = 0
KQU1 182008Z 13010KT 20/04 A2979 RMK A01 T01970044  RH  037%=      5-min Rain = 0
KQU1 182009Z 13007KT 20/04 A2979 RMK A01 T01950044  RH  037%=      5-min Rain = 0
KQU1 182010Z 12004KT 19/04 A2979 RMK A01 T01940044  RH  037%=      5-min Rain = 0
KQU1 182011Z 12006KT 19/05 A2979 RMK A01 T01930048  RH  038%=      5-min Rain = 0
KQU1 182012Z 13008KT 19/04 A2979 RMK A01 T01930042  RH  037%=      5-min Rain = 0
KQU1 182013Z 12007KT 19/05 A2979 RMK A01 T01930047  RH  038%=      5-min Rain = 0
KQU1 182014Z 11008KT 19/05 A2979 RMK A01 T01930048  RH  039%=      5-min Rain = 0
KQU1 182015Z 11008KT 19/05 A2979 RMK A01 T01920048  RH  039%=      5-min Rain = 0
KQU1 182016Z 11008KT 19/05 A2979 RMK A01 T01920046  RH  038%=      5-min Rain = 0
KQU1 182017Z 11009KT 19/05 A2979 RMK A01 T01920045  RH  038%=      5-min Rain = 0
KQU1 182018Z 11009KT 19/05 A2979 RMK A01 T01910047  RH  039%=      5-min Rain = 0
KQU1 182019Z 12009KT 19/05 A2979 RMK A01 T01910045  RH  038%=      5-min Rain = 0
KQU1 182020Z 12009KT 19/05 A2979 RMK A01 T01900050  RH  040%=      5-min Rain = 0
KQU1 182021Z 13008KT 19/05 A2979 RMK A01 T01890052  RH  040%=      5-min Rain = 0
KQU1 182022Z 11008KT 19/06 A2979 RMK A01 T01900055  RH  041%=      5-min Rain = 0
KQU1 182023Z 10006KT 19/06 A2979 RMK A01 T01890055  RH  042%=      5-min Rain = 0
KQU1 182024Z 10007KT 19/06 A2979 RMK A01 T01880059  RH  043%=      5-min Rain = 0
KQU1 182025Z 11008KT 19/05 A2979 RMK A01 T01890053  RH  041%=      5-min Rain = 0
KQU1 182026Z 14006KT 19/06 A2979 RMK A01 T01900056  RH  042%=      5-min Rain = 0
KQU1 182027Z 14007KT 19/06 A2979 RMK A01 T01910057  RH  041%=      5-min Rain = 0
KQU1 182028Z 13009KT 19/06 A2979 RMK A01 T01920055  RH  041%=      5-min Rain = 0
KQU1 182029Z 10008KT 19/05 A2979 RMK A01 T01930054  RH  040%=      5-min Rain = 0
KQU1 182030Z 11011KT 19/05 A2979 RMK A01 T01920046  RH  038%=      5-min Rain = 0
KQU1 182031Z 12009KT 19/05 A2979 RMK A01 T01890050  RH  040%=      5-min Rain = 0
KQU1 182032Z 11006KT 19/05 A2979 RMK A01 T01870053  RH  041%=      5-min Rain = 0
KQU1 182033Z 10004KT 19/06 A2979 RMK A01 T01870059  RH  043%=      5-min Rain = 0
KQU1 182034Z 13006KT 19/06 A2979 RMK A01 T01890062  RH  043%=      5-min Rain = 0
KQU1 182035Z 12007KT 19/06 A2979 RMK A01 T01910058  RH  042%=      5-min Rain = 0
KQU1 182036Z 12007KT 19/06 A2979 RMK A01 T01930058  RH  041%=      5-min Rain = 0
KQU1 182037Z 11009KT 19/05 A2979 RMK A01 T01940053  RH  039%=      5-min Rain = 0
KQU1 182038Z 12009KT 19/05 A2979 RMK A01 T01930053  RH  040%=      5-min Rain = 0
KQU1 182039Z 11009KT 19/05 A2979 RMK A01 T01920054  RH  040%=      5-min Rain = 0
KQU1 182040Z 13009KT 19/05 A2979 RMK A01 T01920054  RH  040%=      5-min Rain = 0
KQU1 182041Z 13007KT 19/06 A2979 RMK A01 T01920059  RH  042%=      5-min Rain = 0
KQU1 182042Z 12006KT 19/06 A2979 RMK A01 T01930059  RH  041%=      5-min Rain = 0
KQU1 182043Z 13005KT 19/06 A2979 RMK A01 T01930058  RH  041%=      5-min Rain = 0
KQU1 182044Z 13007KT 19/06 A2979 RMK A01 T01930057  RH  041%=      5-min Rain = 0
KQU1 182045Z 12005KT 19/06 A2979 RMK A01 T01940057  RH  041%=      5-min Rain = 0
KQU1 182046Z 12009KT 19/06 A2979 RMK A01 T01930055  RH  040%=      5-min Rain = 0
KQU1 182047Z 13007KT 19/06 A2979 RMK A01 T01930055  RH  041%=      5-min Rain = 0
KQU1 182048Z 11005KT 19/06 A2979 RMK A01 T01920057  RH  041%=      5-min Rain = 0
KQU1 182049Z 10007KT 19/05 A2979 RMK A01 T01910053  RH  040%=      5-min Rain = 0
KQU1 182050Z 11008KT 19/06 A2979 RMK A01 T01900057  RH  042%=      5-min Rain = 0
KQU1 182051Z 11008KT 19/06 A2979 RMK A01 T01890059  RH  043%=      5-min Rain = 0
KQU1 182052Z 11005KT 19/06 A2979 RMK A01 T01880064  RH  044%=      5-min Rain = 0
KQU1 182053Z 10004KT 19/06 A2979 RMK A01 T01900060  RH  043%=      5-min Rain = 0
KQU1 182054Z 09002KT 19/06 A2979 RMK A01 T01910060  RH  042%=      5-min Rain = 0
KQU1 182055Z 11006KT 19/06 A2979 RMK A01 T01910060  RH  042%=      5-min Rain = 0
KQU1 182056Z 11008KT 19/06 A2979 RMK A01 T01920056  RH  041%=      5-min Rain = 0
KQU1 182057Z 11006KT 19/05 A2978 RMK A01 T01920053  RH  040%=      5-min Rain = 0
KQU1 182058Z 11008KT 19/05 A2978 RMK A01 T01920052  RH  040%=      5-min Rain = 0
KQU1 182059Z 10008KT 19/06 A2978 RMK A01 T01920057  RH  041%=      5-min Rain = 0
KQU1 182100Z 10005KT 19/06 A2978 RMK A01 T01910055  RH  041%=      5-min Rain = 0
KQU1 182101Z 10007KT 19/06 A2978 RMK A01 T01910061  RH  042%=      5-min Rain = 0
KQU1 182102Z 10006KT 19/06 A2978 RMK A01 T01910056  RH  041%=      5-min Rain = 0
KQU1 182103Z 09005KT 19/06 A2978 RMK A01 T01910056  RH  041%=      5-min Rain = 0
KQU1 182104Z 09007KT 19/06 A2978 RMK A01 T01910059  RH  042%=      5-min Rain = 0
KQU1 182105Z 10009KT 19/06 A2978 RMK A01 T01900061  RH  043%=      5-min Rain = 0
KQU1 182106Z 10008KT 19/06 A2978 RMK A01 T01900059  RH  042%=      5-min Rain = 0
KQU1 182107Z 11007KT 19/06 A2978 RMK A01 T01910056  RH  041%=      5-min Rain = 0
KQU1 182108Z 11007KT 19/06 A2978 RMK A01 T01920055  RH  041%=      5-min Rain = 0
KQU1 182109Z 13005KT 19/06 A2978 RMK A01 T01940055  RH  040%=      5-min Rain = 0
KQU1 182110Z 13005KT 20/06 A2978 RMK A01 T01950058  RH  041%=      5-min Rain = 0
KQU1 182111Z 12009KT 20/06 A2978 RMK A01 T01970058  RH  040%=      5-min Rain = 0
KQU1 182112Z 13007KT 20/05 A2978 RMK A01 T01970054  RH  039%=      5-min Rain = 0
KQU1 182113Z 12008KT 20/06 A2978 RMK A01 T01970060  RH  041%=      5-min Rain = 0
KQU1 182114Z 12009KT 20/06 A2978 RMK A01 T01970060  RH  041%=      5-min Rain = 0
KQU1 182115Z 11009KT 20/06 A2978 RMK A01 T01980060  RH  041%=      5-min Rain = 0
KQU1 182116Z 10009KT 20/06 A2978 RMK A01 T01980057  RH  040%=      5-min Rain = 0
KQU1 182117Z 10009KT 20/06 A2978 RMK A01 T01970059  RH  041%=      5-min Rain = 0
KQU1 182118Z 12006KT 20/06 A2978 RMK A01 T01960060  RH  041%=      5-min Rain = 0
KQU1 182119Z 13005KT 20/06 A2977 RMK A01 T01970056  RH  040%=      5-min Rain = 0
KQU1 182120Z 12004KT 20/06 A2977 RMK A01 T01970058  RH  040%=      5-min Rain = 0
KQU1 182121Z 10007KT 20/06 A2977 RMK A01 T01970058  RH  040%=      5-min Rain = 0
KQU1 182122Z 11009KT 20/06 A2977 RMK A01 T01960058  RH  040%=      5-min Rain = 0
KQU1 182123Z 12009KT 20/06 A2978 RMK A01 T01960057  RH  040%=      5-min Rain = 0
KQU1 182124Z 12006KT 20/05 A2978 RMK A01 T01960054  RH  039%=      5-min Rain = 0
KQU1 182125Z 13004KT 20/06 A2978 RMK A01 T01960055  RH  040%=      5-min Rain = 0
KQU1 182126Z 10006KT 20/06 A2978 RMK A01 T01970061  RH  041%=      5-min Rain = 0
KQU1 182127Z 12007KT 20/07 A2978 RMK A01 T01970065  RH  042%=      5-min Rain = 0
KQU1 182128Z 12006KT 20/07 A2978 RMK A01 T01980065  RH  042%=      5-min Rain = 0
KQU1 182129Z 13005KT 20/07 A2978 RMK A01 T01980065  RH  042%=      5-min Rain = 0
KQU1 182130Z 13008KT 20/06 A2978 RMK A01 T01990059  RH  040%=      5-min Rain = 0
KQU1 182131Z 14007KT 20/06 A2978 RMK A01 T01980058  RH  040%=      5-min Rain = 0
KQU1 182132Z 12007KT 20/06 A2978 RMK A01 T01970061  RH  041%=      5-min Rain = 0
KQU1 182133Z 11005KT 20/06 A2978 RMK A01 T01980060  RH  041%=      5-min Rain = 0
KQU1 182134Z 12008KT 20/06 A2978 RMK A01 T01980060  RH  040%=      5-min Rain = 0
KQU1 182135Z 12010KT 20/06 A2978 RMK A01 T01990058  RH  040%=      5-min Rain = 0
KQU1 182136Z 11007KT 20/05 A2978 RMK A01 T01980054  RH  039%=      5-min Rain = 0
KQU1 182137Z 10006KT 20/05 A2978 RMK A01 T01970054  RH  039%=      5-min Rain = 0
KQU1 182138Z 11007KT 20/06 A2978 RMK A01 T01960056  RH  040%=      5-min Rain = 0
KQU1 182139Z 10009KT 20/06 A2978 RMK A01 T01960058  RH  040%=      5-min Rain = 0
KQU1 182140Z 10007KT 20/06 A2977 RMK A01 T01950056  RH  040%=      5-min Rain = 0
KQU1 182141Z 11005KT 20/06 A2977 RMK A01 T01950060  RH  041%=      5-min Rain = 0
KQU1 182142Z 11009KT 20/06 A2977 RMK A01 T01960056  RH  040%=      5-min Rain = 0
KQU1 182143Z 12010KT 20/06 A2977 RMK A01 T01960057  RH  040%=      5-min Rain = 0
KQU1 182144Z 12008KT 20/06 A2977 RMK A01 T01960056  RH  040%=      5-min Rain = 0
KQU1 182145Z 14009KT 20/06 A2977 RMK A01 T01970058  RH  040%=      5-min Rain = 0
KQU1 182146Z 14007KT 20/06 A2977 RMK A01 T01980058  RH  040%=      5-min Rain = 0
KQU1 182147Z 10006KT 20/06 A2977 RMK A01 T02000059  RH  040%=      5-min Rain = 0
KQU1 182148Z 10009KT 20/06 A2977 RMK A01 T02000057  RH  039%=      5-min Rain = 0
KQU1 182149Z 10010KT 20/06 A2977 RMK A01 T01990058  RH  040%=      5-min Rain = 0
KQU1 182150Z 11011KT 20/06 A2977 RMK A01 T01980055  RH  039%=      5-min Rain = 0
KQU1 182151Z 10010KT 20/06 A2977 RMK A01 T01970059  RH  041%=      5-min Rain = 0
KQU1 182152Z 10010KT 20/06 A2977 RMK A01 T01960060  RH  041%=      5-min Rain = 0
KQU1 182153Z 12010KT 20/06 A2977 RMK A01 T01970059  RH  041%=      5-min Rain = 0
KQU1 182154Z 12009KT 20/06 A2977 RMK A01 T01970055  RH  039%=      5-min Rain = 0
KQU1 182155Z 10006KT 20/06 A2976 RMK A01 T01960059  RH  041%=      5-min Rain = 0
KQU1 182156Z 11006KT 20/06 A2976 RMK A01 T01960063  RH  042%=      5-min Rain = 0
KQU1 182157Z 10010KT 20/06 A2976 RMK A01 T01960061  RH  041%=      5-min Rain = 0
KQU1 182158Z 10007KT 19/06 A2976 RMK A01 T01940062  RH  042%=      5-min Rain = 0
KQU1 182159Z 10009KT 19/06 A2976 RMK A01 T01940063  RH  043%=      5-min Rain = 0
KQU1 182200Z 10008KT 19/06 A2976 RMK A01 T01930061  RH  042%=      5-min Rain = 0
KQU1 182201Z 10009KT 19/06 A2976 RMK A01 T01930061  RH  042%=      5-min Rain = 0
KQU1 182202Z 09011KT 19/07 A2976 RMK A01 T01930066  RH  044%=      5-min Rain = 0
KQU1 182203Z 09010KT 19/07 A2976 RMK A01 T01920067  RH  044%=      5-min Rain = 0
KQU1 182204Z 09010KT 19/07 A2976 RMK A01 T01920066  RH  044%=      5-min Rain = 0
KQU1 182205Z 09008KT 19/07 A2976 RMK A01 T01920066  RH  044%=      5-min Rain = 0
KQU1 182206Z 11010KT 19/07 A2976 RMK A01 T01920067  RH  044%=      5-min Rain = 0
KQU1 182207Z 12008KT 19/06 A2976 RMK A01 T01920063  RH  043%=      5-min Rain = 0
KQU1 182208Z 10010KT 19/06 A2976 RMK A01 T01930064  RH  043%=      5-min Rain = 0
KQU1 182209Z 10009KT 19/07 A2976 RMK A01 T01930065  RH  043%=      5-min Rain = 0
KQU1 182210Z 09008KT 19/07 A2975 RMK A01 T01940066  RH  043%=      5-min Rain = 0
KQU1 182211Z 09011KT 19/07 A2975 RMK A01 T01930066  RH  044%=      5-min Rain = 0
KQU1 182212Z 10011KT 19/07 A2975 RMK A01 T01920066  RH  044%=      5-min Rain = 0
KQU1 182213Z 09010KT 19/07 A2975 RMK A01 T01920070  RH  045%=      5-min Rain = 0
KQU1 182214Z 09011KT 19/07 A2975 RMK A01 T01920067  RH  044%=      5-min Rain = 0
KQU1 182215Z 09010KT 19/07 A2975 RMK A01 T01920067  RH  044%=      5-min Rain = 0
KQU1 182216Z 09011KT 19/07 A2975 RMK A01 T01920066  RH  044%=      5-min Rain = 0
KQU1 182217Z 09010KT 19/07 A2975 RMK A01 T01910065  RH  044%=      5-min Rain = 0
KQU1 182218Z 10010KT 19/07 A2975 RMK A01 T01910066  RH  044%=      5-min Rain = 0
KQU1 182219Z 09011KT 19/07 A2975 RMK A01 T01910065  RH  044%=      5-min Rain = 0
KQU1 182220Z 09011KT 19/07 A2975 RMK A01 T01910065  RH  044%=      5-min Rain = 0
KQU1 182221Z 10011KT 19/07 A2975 RMK A01 T01910065  RH  044%=      5-min Rain = 0
KQU1 182222Z 10011KT 19/06 A2975 RMK A01 T01920064  RH  043%=      5-min Rain = 0
KQU1 182223Z 10010KT 19/06 A2975 RMK A01 T01920063  RH  043%=      5-min Rain = 0
KQU1 182224Z 10009KT 19/07 A2975 RMK A01 T01920067  RH  044%=      5-min Rain = 0
KQU1 182225Z 09009KT 19/07 A2975 RMK A01 T01920065  RH  043%=      5-min Rain = 0
KQU1 182226Z 09011KT 19/06 A2975 RMK A01 T01920063  RH  043%=      5-min Rain = 0
KQU1 182227Z 09012KT 19/06 A2975 RMK A01 T01910061  RH  043%=      5-min Rain = 0
KQU1 182228Z 09011KT 19/06 A2975 RMK A01 T01900060  RH  043%=      5-min Rain = 0
KQU1 182229Z 09009KT 19/06 A2975 RMK A01 T01890061  RH  043%=      5-min Rain = 0
KQU1 182230Z 08009KT 19/06 A2975 RMK A01 T01900060  RH  043%=      5-min Rain = 0
KQU1 182231Z 08009KT 19/06 A2975 RMK A01 T01900062  RH  043%=      5-min Rain = 0
KQU1 182232Z 10010KT 19/06 A2976 RMK A01 T01900060  RH  043%=      5-min Rain = 0
KQU1 182233Z 10009G14KT 19/06 A2976 RMK A01 T01900062  RH  043%=      5-min Rain = 0
KQU1 182234Z 09010KT 19/06 A2976 RMK A01 T01910061  RH  043%=      5-min Rain = 0
KQU1 182235Z 09010KT 19/06 A2976 RMK A01 T01910060  RH  042%=      5-min Rain = 0
KQU1 182236Z 10011KT 19/06 A2976 RMK A01 T01900059  RH  042%=      5-min Rain = 0
KQU1 182237Z 11010KT 19/06 A2976 RMK A01 T01890058  RH  042%=      5-min Rain = 0
KQU1 182238Z 10013KT 19/06 A2976 RMK A01 T01890059  RH  042%=      5-min Rain = 0
KQU1 182239Z 09011KT 19/06 A2976 RMK A01 T01880059  RH  043%=      5-min Rain = 0
KQU1 182240Z 09011KT 19/06 A2976 RMK A01 T01870058  RH  043%=      5-min Rain = 0
KQU1 182241Z 09010KT 19/06 A2976 RMK A01 T01860059  RH  043%=      5-min Rain = 0
KQU1 182242Z 09011KT 19/06 A2975 RMK A01 T01850059  RH  044%=      5-min Rain = 0
KQU1 182243Z 10011KT 18/06 A2976 RMK A01 T01840062  RH  045%=      5-min Rain = 0
KQU1 182244Z 11010KT 19/06 A2976 RMK A01 T01850063  RH  045%=      5-min Rain = 0
KQU1 182245Z 09010KT 19/06 A2976 RMK A01 T01860063  RH  045%=      5-min Rain = 0
KQU1 182246Z 10009KT 19/07 A2976 RMK A01 T01870066  RH  045%=      5-min Rain = 0
KQU1 182247Z 10010KT 19/06 A2976 RMK A01 T01890064  RH  044%=      5-min Rain = 0
KQU1 182248Z 10012KT 19/06 A2976 RMK A01 T01890061  RH  043%=      5-min Rain = 0
KQU1 182249Z 09010KT 19/06 A2976 RMK A01 T01890061  RH  043%=      5-min Rain = 0
KQU1 182250Z 10009KT 19/06 A2976 RMK A01 T01890061  RH  043%=      5-min Rain = 0
KQU1 182251Z 09009KT 19/06 A2976 RMK A01 T01890060  RH  043%=      5-min Rain = 0
KQU1 182252Z 09010KT 19/06 A2976 RMK A01 T01890059  RH  043%=      5-min Rain = 0
KQU1 182253Z 09010KT 19/06 A2976 RMK A01 T01880056  RH  042%=      5-min Rain = 0
KQU1 182254Z 10009KT 19/06 A2976 RMK A01 T01880060  RH  043%=      5-min Rain = 0
KQU1 182255Z 10008KT 19/06 A2976 RMK A01 T01890061  RH  043%=      5-min Rain = 0
KQU1 182256Z 11008KT 19/06 A2976 RMK A01 T01900062  RH  043%=      5-min Rain = 0
KQU1 182257Z 09010KT 19/06 A2976 RMK A01 T01910059  RH  042%=      5-min Rain = 0
KQU1 182258Z 09008KT 19/06 A2976 RMK A01 T01910059  RH  042%=      5-min Rain = 0
KQU1 182259Z 09010KT 19/06 A2976 RMK A01 T01910060  RH  042%=      5-min Rain = 0
KQU1 182300Z 09011KT 19/06 A2976 RMK A01 T01900059  RH  042%=      5-min Rain = 0
KQU1 182301Z 10010KT 19/06 A2976 RMK A01 T01900061  RH  043%=      5-min Rain = 0
KQU1 182302Z 12010KT 19/06 A2976 RMK A01 T01900060  RH  043%=      5-min Rain = 0
KQU1 182303Z 11009KT 19/06 A2976 RMK A01 T01890060  RH  043%=      5-min Rain = 0
KQU1 182304Z 10006KT 19/06 A2976 RMK A01 T01880063  RH  044%=      5-min Rain = 0
KQU1 182305Z 10008KT 19/07 A2976 RMK A01 T01890065  RH  044%=      5-min Rain = 0
KQU1 182306Z 10010KT 19/07 A2976 RMK A01 T01890065  RH  044%=      5-min Rain = 0
KQU1 182307Z 11009KT 19/07 A2977 RMK A01 T01880067  RH  045%=      5-min Rain = 0
KQU1 182308Z 11009KT 19/07 A2977 RMK A01 T01880066  RH  045%=      5-min Rain = 0
KQU1 182309Z 11009KT 19/07 A2977 RMK A01 T01870067  RH  045%=      5-min Rain = 0
KQU1 182310Z 11009KT 19/07 A2977 RMK A01 T01870067  RH  046%=      5-min Rain = 0
KQU1 182311Z 12010KT 19/07 A2977 RMK A01 T01870067  RH  046%=      5-min Rain = 0
KQU1 182312Z 12011KT 19/07 A2977 RMK A01 T01870067  RH  046%=      5-min Rain = 0
KQU1 182313Z 12009KT 19/07 A2977 RMK A01 T01870067  RH  046%=      5-min Rain = 0
KQU1 182314Z 12008KT 19/07 A2977 RMK A01 T01860067  RH  046%=      5-min Rain = 0
KQU1 182315Z 12008KT 19/07 A2977 RMK A01 T01860069  RH  046%=      5-min Rain = 0
KQU1 182316Z 12009KT 19/07 A2977 RMK A01 T01860069  RH  046%=      5-min Rain = 0
KQU1 182317Z 12008KT 19/07 A2977 RMK A01 T01860068  RH  046%=      5-min Rain = 0
KQU1 182318Z 12008KT 19/07 A2977 RMK A01 T01850068  RH  047%=      5-min Rain = 0
KQU1 182319Z 11007KT 18/07 A2977 RMK A01 T01840069  RH  047%=      5-min Rain = 0
KQU1 182320Z 11008KT 18/07 A2977 RMK A01 T01830068  RH  047%=      5-min Rain = 0
KQU1 182321Z 12007KT 18/07 A2977 RMK A01 T01810067  RH  047%=      5-min Rain = 0
KQU1 182322Z 14008KT 18/06 A2977 RMK A01 T01810057  RH  044%=      5-min Rain = 0
KQU1 182323Z 14009KT 18/05 A2977 RMK A01 T01820054  RH  043%=      5-min Rain = 0
KQU1 182324Z 14008KT 18/06 A2977 RMK A01 T01820055  RH  043%=      5-min Rain = 0
KQU1 182325Z 13007KT 18/06 A2977 RMK A01 T01820059  RH  045%=      5-min Rain = 0
KQU1 182326Z 12006KT 18/07 A2977 RMK A01 T01820066  RH  047%=      5-min Rain = 0
KQU1 182327Z 12008KT 18/07 A2977 RMK A01 T01820070  RH  048%=      5-min Rain = 0
KQU1 182328Z 12007KT 18/07 A2977 RMK A01 T01800072  RH  049%=      5-min Rain = 0
KQU1 182329Z 12007KT 18/07 A2977 RMK A01 T01800073  RH  050%=      5-min Rain = 0
KQU1 182330Z 12008KT 18/07 A2977 RMK A01 T01790072  RH  050%=      5-min Rain = 0
KQU1 182331Z 12006KT 18/07 A2977 RMK A01 T01780074  RH  050%=      5-min Rain = 0
KQU1 182332Z 13006KT 18/07 A2977 RMK A01 T01790073  RH  050%=      5-min Rain = 0
KQU1 182333Z 13008KT 18/07 A2977 RMK A01 T01790066  RH  047%=      5-min Rain = 0
KQU1 182334Z 13007KT 18/06 A2977 RMK A01 T01800062  RH  046%=      5-min Rain = 0
KQU1 182335Z 13008KT 18/06 A2977 RMK A01 T01800061  RH  046%=      5-min Rain = 0
KQU1 182336Z 14008KT 18/06 A2977 RMK A01 T01800059  RH  045%=      5-min Rain = 0
KQU1 182337Z 14009KT 18/06 A2977 RMK A01 T01800056  RH  044%=      5-min Rain = 0
KQU1 182338Z 14009KT 18/05 A2977 RMK A01 T01790054  RH  044%=      5-min Rain = 0
KQU1 182339Z 14008KT 18/06 A2977 RMK A01 T01790055  RH  044%=      5-min Rain = 0
KQU1 182340Z 13008KT 18/06 A2977 RMK A01 T01780056  RH  045%=      5-min Rain = 0
KQU1 182341Z 13009KT 18/06 A2977 RMK A01 T01780058  RH  045%=      5-min Rain = 0
KQU1 182342Z 12008KT 18/06 A2977 RMK A01 T01770060  RH  046%=      5-min Rain = 0
KQU1 182343Z 13009KT 18/06 A2977 RMK A01 T01770062  RH  047%=      5-min Rain = 0
KQU1 182344Z 13008KT 18/06 A2977 RMK A01 T01760062  RH  047%=      5-min Rain = 0
KQU1 182345Z 12009KT 18/06 A2977 RMK A01 T01750061  RH  047%=      5-min Rain = 0
KQU1 182346Z 12008KT 18/06 A2977 RMK A01 T01750062  RH  047%=      5-min Rain = 0
KQU1 182347Z 13007KT 17/06 A2977 RMK A01 T01740062  RH  048%=      5-min Rain = 0
KQU1 182348Z 12007KT 17/06 A2977 RMK A01 T01730062  RH  048%=      5-min Rain = 0
KQU1 182349Z 12008KT 17/06 A2977 RMK A01 T01730062  RH  048%=      5-min Rain = 0
KQU1 182350Z 12008KT 17/06 A2977 RMK A01 T01720062  RH  049%=      5-min Rain = 0
KQU1 182351Z 13007KT 17/06 A2977 RMK A01 T01710063  RH  049%=      5-min Rain = 0
KQU1 182352Z 13008KT 17/06 A2977 RMK A01 T01700063  RH  049%=      5-min Rain = 0
KQU1 182353Z 13008KT 17/06 A2977 RMK A01 T01690064  RH  050%=      5-min Rain = 0
KQU1 182354Z 13007KT 17/07 A2977 RMK A01 T01680065  RH  050%=      5-min Rain = 0
KQU1 182355Z 13007KT 17/07 A2977 RMK A01 T01680065  RH  051%=      5-min Rain = 0
KQU1 182356Z 13007KT 17/07 A2978 RMK A01 T01670065  RH  051%=      5-min Rain = 0
KQU1 182357Z 13007KT 17/07 A2978 RMK A01 T01660066  RH  051%=      5-min Rain = 0
KQU1 182358Z 12007KT 17/07 A2978 RMK A01 T01660066  RH  052%=      5-min Rain = 0
KQU1 182359Z 12007KT 17/07 A2978 RMK A01 T01650067  RH  052%=      5-min Rain = 0
KQU1 190000Z 12007KT 16/07 A2977 RMK A01 T01640068  RH  053%=      5-min Rain = 0
KQU1 190001Z 12006KT 16/07 A2978 RMK A01 T01630068  RH  053%=      5-min Rain = 0
KQU1 190002Z 12005KT 16/07 A2978 RMK A01 T01620068  RH  054%=      5-min Rain = 0
KQU1 190003Z 11005KT 16/07 A2978 RMK A01 T01610069  RH  054%=      5-min Rain = 0
KQU1 190004Z 11005KT 16/07 A2978 RMK A01 T01600070  RH  055%=      5-min Rain = 0
KQU1 190005Z 11005KT 16/07 A2978 RMK A01 T01590071  RH  056%=      5-min Rain = 0
KQU1 190006Z 10005KT 16/07 A2978 RMK A01 T01580074  RH  057%=      5-min Rain = 0
KQU1 190007Z 10005KT 16/08 A2978 RMK A01 T01570077  RH  059%=      5-min Rain = 0
KQU1 190008Z 10006KT 16/08 A2977 RMK A01 T01560079  RH  060%=      5-min Rain = 0
KQU1 190009Z 10006KT 16/08 A2977 RMK A01 T01550080  RH  061%=      5-min Rain = 0
KQU1 190010Z 10006KT 15/08 A2977 RMK A01 T01540081  RH  062%=      5-min Rain = 0
KQU1 190011Z 10007KT 15/08 A2977 RMK A01 T01530082  RH  063%=      5-min Rain = 0
KQU1 190012Z 10007KT 15/08 A2977 RMK A01 T01520083  RH  063%=      5-min Rain = 0
KQU1 190013Z 10006KT 15/08 A2978 RMK A01 T01510083  RH  064%=      5-min Rain = 0
KQU1 190014Z 10006KT 15/08 A2978 RMK A01 T01500084  RH  064%=      5-min Rain = 0
KQU1 190015Z 10006KT 15/08 A2978 RMK A01 T01500083  RH  065%=      5-min Rain = 0
KQU1 190016Z 10006KT 15/08 A2978 RMK A01 T01490084  RH  065%=      5-min Rain = 0
KQU1 190017Z 10006KT 15/08 A2978 RMK A01 T01480083  RH  065%=      5-min Rain = 0
KQU1 190018Z 10006KT 15/08 A2978 RMK A01 T01480084  RH  065%=      5-min Rain = 0
KQU1 190019Z 10006KT 15/08 A2978 RMK A01 T01470084  RH  066%=      5-min Rain = 0
KQU1 190020Z 10006KT 15/08 A2978 RMK A01 T01460084  RH  066%=      5-min Rain = 0
KQU1 190021Z 10006KT 15/08 A2978 RMK A01 T01460084  RH  066%=      5-min Rain = 0
KQU1 190022Z 10006KT 15/08 A2978 RMK A01 T01450084  RH  067%=      5-min Rain = 0
KQU1 190023Z 10006KT 14/08 A2978 RMK A01 T01440084  RH  067%=      5-min Rain = 0
KQU1 190024Z 10006KT 14/08 A2977 RMK A01 T01440084  RH  067%=      5-min Rain = 0
KQU1 190025Z 10006KT 14/08 A2977 RMK A01 T01430083  RH  067%=      5-min Rain = 0
KQU1 190026Z 10006KT 14/08 A2977 RMK A01 T01420083  RH  068%=      5-min Rain = 0
KQU1 190027Z 10006KT 14/08 A2977 RMK A01 T01410083  RH  068%=      5-min Rain = 0
KQU1 190028Z 10006KT 14/08 A2977 RMK A01 T01400083  RH  068%=      5-min Rain = 0
KQU1 190029Z 10006KT 14/08 A2978 RMK A01 T01400083  RH  069%=      5-min Rain = 0
KQU1 190030Z 10006KT 14/08 A2978 RMK A01 T01390083  RH  069%=      5-min Rain = 0
KQU1 190031Z 10005KT 14/08 A2978 RMK A01 T01380083  RH  069%=      5-min Rain = 0
KQU1 190032Z 10005KT 14/08 A2978 RMK A01 T01380082  RH  069%=      5-min Rain = 0
KQU1 190033Z 10005KT 14/08 A2978 RMK A01 T01370082  RH  069%=      5-min Rain = 0
KQU1 190034Z 11005KT 14/08 A2978 RMK A01 T01360082  RH  070%=      5-min Rain = 0
KQU1 190035Z 11005KT 14/08 A2978 RMK A01 T01360082  RH  070%=      5-min Rain = 0
KQU1 190036Z 11005KT 14/08 A2978 RMK A01 T01350082  RH  070%=      5-min Rain = 0
KQU1 190037Z 11005KT 14/08 A2978 RMK A01 T01350081  RH  070%=      5-min Rain = 0
KQU1 190038Z 11004KT 13/08 A2978 RMK A01 T01340081  RH  070%=      5-min Rain = 0
KQU1 190039Z 11004KT 13/08 A2978 RMK A01 T01340081  RH  070%=      5-min Rain = 0
KQU1 190040Z 11004KT 13/08 A2978 RMK A01 T01330080  RH  070%=      5-min Rain = 0
KQU1 190041Z 11004KT 13/08 A2978 RMK A01 T01330080  RH  070%=      5-min Rain = 0
KQU1 190042Z 11004KT 13/08 A2978 RMK A01 T01320080  RH  071%=      5-min Rain = 0
KQU1 190043Z 11004KT 13/08 A2978 RMK A01 T01310080  RH  071%=      5-min Rain = 0
KQU1 190044Z 12005KT 13/08 A2978 RMK A01 T01310079  RH  071%=      5-min Rain = 0
KQU1 190045Z 12004KT 13/08 A2978 RMK A01 T01300079  RH  071%=      5-min Rain = 0
KQU1 190046Z 12004KT 13/08 A2978 RMK A01 T01300079  RH  071%=      5-min Rain = 0
KQU1 190047Z 13004KT 13/08 A2978 RMK A01 T01290079  RH  071%=      5-min Rain = 0
KQU1 190048Z 14003KT 13/08 A2979 RMK A01 T01290079  RH  072%=      5-min Rain = 0
KQU1 190049Z 15003KT 13/08 A2979 RMK A01 T01280080  RH  072%=      5-min Rain = 0
KQU1 190050Z 16003KT 13/08 A2979 RMK A01 T01270080  RH  073%=      5-min Rain = 0
KQU1 190051Z 16003KT 13/08 A2979 RMK A01 T01270080  RH  073%=      5-min Rain = 0
KQU1 190052Z 16003KT 13/08 A2979 RMK A01 T01260080  RH  073%=      5-min Rain = 0
KQU1 190053Z 15003KT 13/08 A2979 RMK A01 T01260081  RH  074%=      5-min Rain = 0
KQU1 190054Z 15003KT 13/08 A2979 RMK A01 T01260081  RH  074%=      5-min Rain = 0
KQU1 190055Z 14003KT 13/08 A2979 RMK A01 T01260081  RH  074%=      5-min Rain = 0
KQU1 190056Z 13003KT 13/08 A2979 RMK A01 T01260081  RH  074%=      5-min Rain = 0
KQU1 190057Z 13003KT 13/08 A2978 RMK A01 T01260081  RH  074%=      5-min Rain = 0
KQU1 190058Z 12004KT 13/08 A2978 RMK A01 T01260081  RH  074%=      5-min Rain = 0
KQU1 190059Z 13003KT 13/08 A2978 RMK A01 T01250080  RH  074%=      5-min Rain = 0
KQU1 190100Z 12004KT 13/08 A2978 RMK A01 T01250081  RH  074%=      5-min Rain = 0
KQU1 190101Z 12003KT 13/08 A2978 RMK A01 T01250081  RH  074%=      5-min Rain = 0
KQU1 190102Z 12003KT 13/08 A2978 RMK A01 T01250080  RH  074%=      5-min Rain = 0
KQU1 190103Z 11003KT 13/08 A2978 RMK A01 T01250081  RH  074%=      5-min Rain = 0
KQU1 190104Z 11004KT 13/08 A2978 RMK A01 T01250081  RH  074%=      5-min Rain = 0
KQU1 190105Z 11004KT 13/08 A2978 RMK A01 T01250081  RH  074%=      5-min Rain = 0
KQU1 190106Z 11004KT 12/08 A2978 RMK A01 T01240080  RH  074%=      5-min Rain = 0
KQU1 190107Z 11004KT 12/08 A2978 RMK A01 T01240080  RH  075%=      5-min Rain = 0
KQU1 190108Z 11004KT 12/08 A2978 RMK A01 T01240081  RH  075%=      5-min Rain = 0
KQU1 190109Z 11004KT 12/08 A2978 RMK A01 T01240081  RH  075%=      5-min Rain = 0
KQU1 190110Z 12004KT 12/08 A2978 RMK A01 T01230081  RH  075%=      5-min Rain = 0
KQU1 190111Z 12004KT 12/08 A2978 RMK A01 T01230081  RH  076%=      5-min Rain = 0
KQU1 190112Z 12003KT 12/08 A2978 RMK A01 T01220081  RH  076%=      5-min Rain = 0
KQU1 190113Z 12003KT 12/08 A2979 RMK A01 T01220081  RH  076%=      5-min Rain = 0
KQU1 190114Z 13003KT 12/08 A2979 RMK A01 T01220082  RH  076%=      5-min Rain = 0
KQU1 190115Z 13004KT 12/08 A2979 RMK A01 T01220082  RH  077%=      5-min Rain = 0
KQU1 190116Z 13003KT 12/08 A2979 RMK A01 T01210082  RH  077%=      5-min Rain = 0
KQU1 190117Z 14003KT 12/08 A2979 RMK A01 T01210083  RH  077%=      5-min Rain = 0
KQU1 190118Z 14002KT 12/08 A2979 RMK A01 T01210083  RH  077%=      5-min Rain = 0
KQU1 190119Z 15003KT 12/08 A2979 RMK A01 T01210083  RH  077%=      5-min Rain = 0
KQU1 190120Z 15003KT 12/08 A2979 RMK A01 T01210083  RH  077%=      5-min Rain = 0
KQU1 190121Z 15003KT 12/08 A2979 RMK A01 T01210083  RH  077%=      5-min Rain = 0
KQU1 190122Z 15002KT 12/08 A2979 RMK A01 T01200083  RH  078%=      5-min Rain = 0
KQU1 190123Z 15003KT 12/08 A2979 RMK A01 T01200083  RH  078%=      5-min Rain = 0
KQU1 190124Z 15004KT 12/08 A2979 RMK A01 T01200084  RH  078%=      5-min Rain = 0
KQU1 190125Z 15004KT 12/09 A2979 RMK A01 T01200085  RH  079%=      5-min Rain = 0
KQU1 190126Z 15004KT 12/09 A2979 RMK A01 T01210085  RH  079%=      5-min Rain = 0
KQU1 190127Z 15004KT 12/09 A2979 RMK A01 T01210085  RH  079%=      5-min Rain = 0
KQU1 190128Z 15004KT 12/09 A2979 RMK A01 T01210085  RH  079%=      5-min Rain = 0
KQU1 190129Z 16003KT 12/09 A2979 RMK A01 T01210085  RH  079%=      5-min Rain = 0
KQU1 190130Z 17003KT 12/09 A2979 RMK A01 T01210085  RH  079%=      5-min Rain = 0
KQU1 190131Z 18004KT 12/09 A298 RMK A01 T01210085  RH  079%=      5-min Rain = 0
KQU1 190132Z 18004KT 12/09 A2979 RMK A01 T01200085  RH  079%=      5-min Rain = 0
KQU1 190133Z 18004KT 12/09 A2979 RMK A01 T01200085  RH  079%=      5-min Rain = 0
KQU1 190134Z 17004KT 12/09 A2979 RMK A01 T01200085  RH  079%=      5-min Rain = 0
KQU1 190135Z 18004KT 12/09 A2979 RMK A01 T01200085  RH  079%=      5-min Rain = 0
KQU1 190136Z 18004KT 12/09 A2979 RMK A01 T01190085  RH  079%=      5-min Rain = 0
KQU1 190137Z 19004KT 12/08 A298 RMK A01 T01180084  RH  080%=      5-min Rain = 0
KQU1 190138Z 19004KT 12/08 A298 RMK A01 T01170084  RH  080%=      5-min Rain = 0
KQU1 190139Z 19005KT 12/08 A298 RMK A01 T01160084  RH  081%=      5-min Rain = 0
KQU1 190140Z 20005KT 12/08 A298 RMK A01 T01150084  RH  081%=      5-min Rain = 0
KQU1 190141Z 20005KT 11/08 A298 RMK A01 T01140084  RH  082%=      5-min Rain = 0
KQU1 190142Z 19004KT 11/08 A298 RMK A01 T01140084  RH  082%=      5-min Rain = 0
KQU1 190143Z 19005KT 11/08 A298 RMK A01 T01140084  RH  082%=      5-min Rain = 0
KQU1 190144Z 20005KT 12/08 A298 RMK A01 T01150084  RH  082%=      5-min Rain = 0
KQU1 190145Z 19005KT 12/09 A298 RMK A01 T01150085  RH  081%=      5-min Rain = 0
KQU1 190146Z 19005KT 12/09 A298 RMK A01 T01160085  RH  081%=      5-min Rain = 0
KQU1 190147Z 18005KT 12/09 A298 RMK A01 T01160085  RH  081%=      5-min Rain = 0
KQU1 190148Z 18004KT 12/08 A298 RMK A01 T01160084  RH  081%=      5-min Rain = 0
KQU1 190149Z 17005KT 12/08 A298 RMK A01 T01160084  RH  081%=      5-min Rain = 0
KQU1 190150Z 17004KT 12/08 A298 RMK A01 T01160084  RH  081%=      5-min Rain = 0
KQU1 190151Z 16004KT 12/09 A298 RMK A01 T01170085  RH  081%=      5-min Rain = 0
KQU1 190152Z 16004KT 12/08 A298 RMK A01 T01170084  RH  080%=      5-min Rain = 0
KQU1 190153Z 15004KT 12/08 A298 RMK A01 T01170083  RH  080%=      5-min Rain = 0
KQU1 190154Z 14004KT 12/08 A298 RMK A01 T01170083  RH  080%=      5-min Rain = 0
KQU1 190155Z 14004KT 12/08 A298 RMK A01 T01160083  RH  080%=      5-min Rain = 0
KQU1 190156Z 14004KT 12/08 A2979 RMK A01 T01160083  RH  080%=      5-min Rain = 0
KQU1 190157Z 14003KT 12/08 A2979 RMK A01 T01160082  RH  080%=      5-min Rain = 0
KQU1 190158Z 14003KT 12/08 A2979 RMK A01 T01160082  RH  080%=      5-min Rain = 0
KQU1 190159Z 13004KT 12/08 A2979 RMK A01 T01160082  RH  080%=      5-min Rain = 0
KQU1 190200Z 13003KT 12/08 A2979 RMK A01 T01150082  RH  080%=      5-min Rain = 0
KQU1 190201Z 13003KT 12/08 A298 RMK A01 T01150082  RH  080%=      5-min Rain = 0
KQU1 190202Z 12003KT 12/08 A298 RMK A01 T01150082  RH  080%=      5-min Rain = 0
KQU1 190203Z 12003KT 12/08 A298 RMK A01 T01150082  RH  080%=      5-min Rain = 0
KQU1 190204Z 12004KT 12/08 A298 RMK A01 T01150082  RH  080%=      5-min Rain = 0
KQU1 190205Z 11004KT 12/08 A298 RMK A01 T01150082  RH  081%=      5-min Rain = 0
KQU1 190206Z 11005KT 12/08 A2979 RMK A01 T01150082  RH  080%=      5-min Rain = 0
KQU1 190207Z 11005KT 12/08 A2979 RMK A01 T01150082  RH  080%=      5-min Rain = 0
KQU1 190208Z 11005KT 12/08 A2979 RMK A01 T01150083  RH  080%=      5-min Rain = 0
KQU1 190209Z 11004KT 12/08 A2979 RMK A01 T01150083  RH  081%=      5-min Rain = 0
KQU1 190210Z 12004KT 12/08 A298 RMK A01 T01160083  RH  081%=      5-min Rain = 0
KQU1 190211Z 13004KT 12/08 A298 RMK A01 T01160083  RH  080%=      5-min Rain = 0
KQU1 190212Z 13003KT 12/08 A298 RMK A01 T01160084  RH  080%=      5-min Rain = 0
KQU1 190213Z 13003KT 12/08 A298 RMK A01 T01170084  RH  080%=      5-min Rain = 0
KQU1 190214Z 14003KT 12/08 A298 RMK A01 T01170084  RH  080%=      5-min Rain = 0
KQU1 190215Z 14003KT 12/08 A298 RMK A01 T01180084  RH  080%=      5-min Rain = 0
KQU1 190216Z 13003KT 12/08 A298 RMK A01 T01180084  RH  080%=      5-min Rain = 0
KQU1 190217Z 14003KT 12/08 A298 RMK A01 T01180084  RH  080%=      5-min Rain = 0
KQU1 190218Z 15003KT 12/08 A298 RMK A01 T01180084  RH  080%=      5-min Rain = 0
KQU1 190219Z 16003KT 12/08 A2981 RMK A01 T01180084  RH  080%=      5-min Rain = 0
KQU1 190220Z 18003KT 12/08 A2981 RMK A01 T01180084  RH  080%=      5-min Rain = 0
KQU1 190221Z 18003KT 12/08 A2981 RMK A01 T01170083  RH  080%=      5-min Rain = 0
KQU1 190222Z 18003KT 12/08 A2981 RMK A01 T01160083  RH  080%=      5-min Rain = 0
KQU1 190223Z 18003KT 12/08 A2981 RMK A01 T01150083  RH  080%=      5-min Rain = 0
KQU1 190224Z 16003KT 11/08 A2981 RMK A01 T01140083  RH  081%=      5-min Rain = 0
KQU1 190225Z 16003KT 11/08 A2981 RMK A01 T01140083  RH  081%=      5-min Rain = 0
KQU1 190226Z 16003KT 12/08 A2981 RMK A01 T01150084  RH  081%=      5-min Rain = 0
KQU1 190227Z 16003KT 12/08 A2981 RMK A01 T01150084  RH  081%=      5-min Rain = 0
KQU1 190228Z 17003KT 12/08 A2981 RMK A01 T01150084  RH  081%=      5-min Rain = 0
KQU1 190229Z 18003KT 12/08 A2981 RMK A01 T01160084  RH  081%=      5-min Rain = 0
KQU1 190230Z 19003KT 12/08 A2981 RMK A01 T01160083  RH  080%=      5-min Rain = 0
KQU1 190231Z 19002KT 12/08 A2981 RMK A01 T01160083  RH  080%=      5-min Rain = 0
KQU1 190232Z 20002KT 12/08 A2981 RMK A01 T01160083  RH  080%=      5-min Rain = 0
KQU1 190233Z 21002KT 12/08 A2981 RMK A01 T01150083  RH  081%=      5-min Rain = 0
KQU1 190234Z 22002KT 11/08 A2981 RMK A01 T01140082  RH  081%=      5-min Rain = 0
KQU1 190235Z 22002KT 11/08 A2981 RMK A01 T01130082  RH  081%=      5-min Rain = 0
KQU1 190236Z 21002KT 11/08 A2981 RMK A01 T01120081  RH  081%=      5-min Rain = 0
KQU1 190237Z 21002KT 11/08 A2981 RMK A01 T01110081  RH  082%=      5-min Rain = 0
KQU1 190238Z 21002KT 11/08 A2981 RMK A01 T01100081  RH  082%=      5-min Rain = 0
KQU1 190239Z 21002KT 11/08 A2981 RMK A01 T01090080  RH  083%=      5-min Rain = 0
KQU1 190240Z 21002KT 11/08 A2981 RMK A01 T01080081  RH  083%=      5-min Rain = 0
KQU1 190241Z 20002KT 11/08 A2981 RMK A01 T01080081  RH  083%=      5-min Rain = 0
KQU1 190242Z 19002KT 11/08 A2982 RMK A01 T01080081  RH  083%=      5-min Rain = 0
KQU1 190243Z 19003KT 11/08 A2982 RMK A01 T01080081  RH  083%=      5-min Rain = 0
KQU1 190244Z 18003KT 11/08 A2982 RMK A01 T01090081  RH  083%=      5-min Rain = 0
KQU1 190245Z 19003KT 11/08 A2982 RMK A01 T01100081  RH  082%=      5-min Rain = 0
KQU1 190246Z 20003KT 11/08 A2982 RMK A01 T01100080  RH  082%=      5-min Rain = 0
KQU1 190247Z 20003KT 11/08 A2982 RMK A01 T01100081  RH  082%=      5-min Rain = 0
KQU1 190248Z 19003KT 11/08 A2982 RMK A01 T01100081  RH  082%=      5-min Rain = 0
KQU1 190249Z 20003KT 11/08 A2982 RMK A01 T01100081  RH  082%=      5-min Rain = 0
KQU1 190250Z 19003KT 11/08 A2982 RMK A01 T01100081  RH  082%=      5-min Rain = 0
KQU1 190251Z 19003KT 11/08 A2982 RMK A01 T01110081  RH  082%=      5-min Rain = 0
KQU1 190252Z 18003KT 11/08 A2982 RMK A01 T01110081  RH  082%=      5-min Rain = 0
KQU1 190253Z 17003KT 11/08 A2982 RMK A01 T01110081  RH  082%=      5-min Rain = 0
KQU1 190254Z 17004KT 11/08 A2982 RMK A01 T01110082  RH  082%=      5-min Rain = 0
KQU1 190255Z 17004KT 11/08 A2982 RMK A01 T01120082  RH  082%=      5-min Rain = 0
KQU1 190256Z 17004KT 11/08 A2982 RMK A01 T01130083  RH  082%=      5-min Rain = 0
KQU1 190257Z 17004KT 11/08 A2982 RMK A01 T01140083  RH  081%=      5-min Rain = 0
KQU1 190258Z 17004KT 11/08 A2982 RMK A01 T01140083  RH  081%=      5-min Rain = 0
KQU1 190259Z 17004KT 11/08 A2982 RMK A01 T01140083  RH  081%=      5-min Rain = 0
KQU1 190300Z 17004KT 11/08 A2982 RMK A01 T01140082  RH  081%=      5-min Rain = 0
KQU1 190301Z 17005KT 11/08 A2982 RMK A01 T01140082  RH  081%=      5-min Rain = 0
KQU1 190302Z 17005KT 11/08 A2982 RMK A01 T01130082  RH  081%=      5-min Rain = 0
KQU1 190303Z 17005KT 11/08 A2983 RMK A01 T01130082  RH  081%=      5-min Rain = 0
KQU1 190304Z 16005KT 11/08 A2983 RMK A01 T01130082  RH  082%=      5-min Rain = 0
KQU1 190305Z 16005KT 11/08 A2983 RMK A01 T01120082  RH  082%=      5-min Rain = 0
KQU1 190306Z 16005KT 11/08 A2983 RMK A01 T01120082  RH  082%=      5-min Rain = 0
KQU1 190307Z 16006KT 11/08 A2983 RMK A01 T01110082  RH  082%=      5-min Rain = 0
KQU1 190308Z 16005KT 11/08 A2983 RMK A01 T01110081  RH  082%=      5-min Rain = 0
KQU1 190309Z 17006KT 11/08 A2983 RMK A01 T01100081  RH  082%=      5-min Rain = 0
KQU1 190310Z 16006KT 11/08 A2983 RMK A01 T01100081  RH  083%=      5-min Rain = 0
KQU1 190311Z 17006KT 11/08 A2983 RMK A01 T01100082  RH  083%=      5-min Rain = 0
KQU1 190312Z 17006KT 11/08 A2983 RMK A01 T01090082  RH  083%=      5-min Rain = 0
KQU1 190313Z 17006KT 11/08 A2983 RMK A01 T01090083  RH  084%=      5-min Rain = 0
KQU1 190314Z 17005KT 11/08 A2983 RMK A01 T01080082  RH  084%=      5-min Rain = 0
KQU1 190315Z 16005KT 11/08 A2983 RMK A01 T01080081  RH  084%=      5-min Rain = 0
KQU1 190316Z 16005KT 11/08 A2983 RMK A01 T01070081  RH  084%=      5-min Rain = 0
KQU1 190317Z 16006KT 11/08 A2983 RMK A01 T01070082  RH  084%=      5-min Rain = 0
KQU1 190318Z 16005KT 11/08 A2983 RMK A01 T01070081  RH  084%=      5-min Rain = 0
KQU1 190319Z 15005KT 11/08 A2983 RMK A01 T01070082  RH  084%=      5-min Rain = 0
KQU1 190320Z 15005KT 11/08 A2983 RMK A01 T01070082  RH  085%=      5-min Rain = 0
KQU1 190321Z 16005KT 11/08 A2983 RMK A01 T01080082  RH  084%=      5-min Rain = 0
KQU1 190322Z 16005KT 11/08 A2983 RMK A01 T01080082  RH  084%=      5-min Rain = 0
KQU1 190323Z 16005KT 11/08 A2983 RMK A01 T01080083  RH  084%=      5-min Rain = 0
KQU1 190324Z 16004KT 11/08 A2983 RMK A01 T01070082  RH  085%=      5-min Rain = 0
KQU1 190325Z 17004KT 11/08 A2983 RMK A01 T01070083  RH  085%=      5-min Rain = 0
KQU1 190326Z 17004KT 11/08 A2983 RMK A01 T01070083  RH  085%=      5-min Rain = 0
KQU1 190327Z 17004KT 11/08 A2983 RMK A01 T01070083  RH  085%=      5-min Rain = 0
KQU1 190328Z 18003KT 11/08 A2983 RMK A01 T01060080  RH  084%=      5-min Rain = 0
KQU1 190329Z 20003KT 10/08 A2983 RMK A01 T01040077  RH  084%=      5-min Rain = 0
KQU1 190330Z 20004KT 10/08 A2983 RMK A01 T01020077  RH  084%=      5-min Rain = 0
KQU1 190331Z 20004KT 10/08 A2983 RMK A01 T01010077  RH  085%=      5-min Rain = 0
KQU1 190332Z 19004KT 10/08 A2983 RMK A01 T01000077  RH  086%=      5-min Rain = 0
KQU1 190333Z 19004KT 10/08 A2983 RMK A01 T01000077  RH  086%=      5-min Rain = 0
KQU1 190334Z 19004KT 10/08 A2983 RMK A01 T00990077  RH  086%=      5-min Rain = 0
KQU1 190335Z 20004KT 10/08 A2983 RMK A01 T00990077  RH  086%=      5-min Rain = 0
KQU1 190336Z 20004KT 10/08 A2983 RMK A01 T00990077  RH  086%=      5-min Rain = 0
KQU1 190337Z 19004KT 10/08 A2983 RMK A01 T00990077  RH  087%=      5-min Rain = 0
KQU1 190338Z 19004KT 10/08 A2983 RMK A01 T00990077  RH  087%=      5-min Rain = 0
KQU1 190339Z 19004KT 10/08 A2983 RMK A01 T00990078  RH  087%=      5-min Rain = 0
KQU1 190340Z 19004KT 10/08 A2983 RMK A01 T00990078  RH  087%=      5-min Rain = 0
KQU1 190341Z 18004KT 10/08 A2983 RMK A01 T00990078  RH  087%=      5-min Rain = 0
KQU1 190342Z 18004KT 10/08 A2983 RMK A01 T00990079  RH  087%=      5-min Rain = 0
KQU1 190343Z 17004KT 10/08 A2983 RMK A01 T00990079  RH  087%=      5-min Rain = 0
KQU1 190344Z 18004KT 10/08 A2983 RMK A01 T01000079  RH  087%=      5-min Rain = 0
KQU1 190345Z 18004KT 10/08 A2983 RMK A01 T01000079  RH  087%=      5-min Rain = 0
KQU1 190346Z 19005KT 10/08 A2983 RMK A01 T01000079  RH  087%=      5-min Rain = 0
KQU1 190347Z 19005KT 10/08 A2984 RMK A01 T01000079  RH  087%=      5-min Rain = 0
KQU1 190348Z 19005KT 10/08 A2984 RMK A01 T01000079  RH  087%=      5-min Rain = 0
KQU1 190349Z 20005KT 10/08 A2984 RMK A01 T00990079  RH  087%=      5-min Rain = 0
KQU1 190350Z 20005KT 10/08 A2984 RMK A01 T00990079  RH  087%=      5-min Rain = 0
KQU1 190351Z 20005KT 10/08 A2984 RMK A01 T00990079  RH  087%=      5-min Rain = 0
KQU1 190352Z 20005KT 10/08 A2984 RMK A01 T00990079  RH  087%=      5-min Rain = 0
KQU1 190353Z 21005KT 10/08 A2984 RMK A01 T00990079  RH  087%=      5-min Rain = 0
KQU1 190354Z 20005KT 10/08 A2984 RMK A01 T00990079  RH  087%=      5-min Rain = 0
KQU1 190355Z 20005KT 10/08 A2984 RMK A01 T00990079  RH  087%=      5-min Rain = 0
KQU1 190356Z 19005KT 10/08 A2984 RMK A01 T00990079  RH  088%=      5-min Rain = 0
KQU1 190357Z 19004KT 10/08 A2984 RMK A01 T00990079  RH  087%=      5-min Rain = 0
KQU1 190358Z 20005KT 10/08 A2984 RMK A01 T00990079  RH  087%=      5-min Rain = 0
KQU1 190359Z 20005KT 10/08 A2984 RMK A01 T00990079  RH  087%=      5-min Rain = 0
KQU1 190400Z 20006KT 10/08 A2984 RMK A01 T00990080  RH  088%=      5-min Rain = 0
KQU1 190401Z 19006KT 10/08 A2984 RMK A01 T01000081  RH  088%=      5-min Rain = 0
KQU1 190402Z 19006KT 10/08 A2984 RMK A01 T01010080  RH  087%=      5-min Rain = 0
KQU1 190403Z 19007KT 10/08 A2984 RMK A01 T01010080  RH  087%=      5-min Rain = 0
KQU1 190404Z 19006KT 10/08 A2984 RMK A01 T01010081  RH  088%=      5-min Rain = 0
KQU1 190405Z 19006KT 10/08 A2984 RMK A01 T01020082  RH  087%=      5-min Rain = 0
KQU1 190406Z 19006KT 10/08 A2984 RMK A01 T01020082  RH  087%=      5-min Rain = 0
KQU1 190407Z 19005KT 10/08 A2984 RMK A01 T01030082  RH  087%=      5-min Rain = 0
KQU1 190408Z 20005KT 10/08 A2985 RMK A01 T01030081  RH  087%=      5-min Rain = 0
KQU1 190409Z 19006KT 10/08 A2985 RMK A01 T01020081  RH  087%=      5-min Rain = 0
KQU1 190410Z 20005KT 10/08 A2984 RMK A01 T01010080  RH  087%=      5-min Rain = 0
KQU1 190411Z 20005KT 10/08 A2984 RMK A01 T01010080  RH  087%=      5-min Rain = 0
KQU1 190412Z 19005KT 10/08 A2984 RMK A01 T01000079  RH  087%=      5-min Rain = 0
KQU1 190413Z 19005KT 10/08 A2984 RMK A01 T00990079  RH  087%=      5-min Rain = 0
KQU1 190414Z 20005KT 10/08 A2984 RMK A01 T00990079  RH  087%=      5-min Rain = 0
KQU1 190415Z 20006KT 10/08 A2984 RMK A01 T00980078  RH  087%=      5-min Rain = 0
KQU1 190416Z 20006KT 10/08 A2985 RMK A01 T00970078  RH  088%=      5-min Rain = 0
KQU1 190417Z 20007KT 10/08 A2985 RMK A01 T00960077  RH  088%=      5-min Rain = 0
KQU1 190418Z 20007KT 10/08 A2985 RMK A01 T00960077  RH  088%=      5-min Rain = 0
KQU1 190419Z 20007KT 10/08 A2985 RMK A01 T00950077  RH  089%=      5-min Rain = 0
KQU1 190420Z 20007KT 09/08 A2985 RMK A01 T00940077  RH  089%=      5-min Rain = 0
KQU1 190421Z 20007KT 09/08 A2984 RMK A01 T00940077  RH  089%=      5-min Rain = 0
KQU1 190422Z 20007KT 09/08 A2984 RMK A01 T00940078  RH  089%=      5-min Rain = 0
KQU1 190423Z 20006KT 09/08 A2984 RMK A01 T00940078  RH  089%=      5-min Rain = 0
KQU1 190424Z 20006KT 09/08 A2984 RMK A01 T00940078  RH  090%=      5-min Rain = 0
KQU1 190425Z 20006KT 09/08 A2984 RMK A01 T00940078  RH  090%=      5-min Rain = 0
KQU1 190426Z 20007KT 09/08 A2984 RMK A01 T00940078  RH  090%=      5-min Rain = 0
KQU1 190427Z 20007KT 09/08 A2985 RMK A01 T00940078  RH  090%=      5-min Rain = 0
KQU1 190428Z 20006KT 09/08 A2985 RMK A01 T00940078  RH  090%=      5-min Rain = 0
KQU1 190429Z 20006KT 10/08 A2985 RMK A01 T00950079  RH  090%=      5-min Rain = 0
KQU1 190430Z 20006KT 10/08 A2985 RMK A01 T00950079  RH  090%=      5-min Rain = 0
KQU1 190431Z 20006KT 10/08 A2985 RMK A01 T00950079  RH  090%=      5-min Rain = 0
KQU1 190432Z 20006KT 10/08 A2984 RMK A01 T00950079  RH  090%=      5-min Rain = 0
KQU1 190433Z 20005KT 10/08 A2984 RMK A01 T00950078  RH  090%=      5-min Rain = 0
KQU1 190434Z 20005KT 10/08 A2984 RMK A01 T00950078  RH  090%=      5-min Rain = 0
KQU1 190435Z 20005KT 10/08 A2984 RMK A01 T00950078  RH  089%=      5-min Rain = 0
KQU1 190436Z 20005KT 09/08 A2984 RMK A01 T00940078  RH  089%=      5-min Rain = 0
KQU1 190437Z 20004KT 09/08 A2984 RMK A01 T00940078  RH  089%=      5-min Rain = 0
KQU1 190438Z 20004KT 09/08 A2984 RMK A01 T00940077  RH  089%=      5-min Rain = 0
KQU1 190439Z 20004KT 09/08 A2984 RMK A01 T00930077  RH  089%=      5-min Rain = 0
KQU1 190440Z 20004KT 09/08 A2984 RMK A01 T00930077  RH  090%=      5-min Rain = 0
KQU1 190441Z 21004KT 09/08 A2984 RMK A01 T00930077  RH  090%=      5-min Rain = 0
KQU1 190442Z 21004KT 09/08 A2984 RMK A01 T00930077  RH  090%=      5-min Rain = 0
KQU1 190443Z 21004KT 09/08 A2984 RMK A01 T00930077  RH  090%=      5-min Rain = 0
KQU1 190444Z 21004KT 09/08 A2984 RMK A01 T00930077  RH  090%=      5-min Rain = 0
KQU1 190445Z 22004KT 09/08 A2984 RMK A01 T00930077  RH  090%=      5-min Rain = 0
KQU1 190446Z 22004KT 09/08 A2984 RMK A01 T00930078  RH  090%=      5-min Rain = 0
KQU1 190447Z 21004KT 09/08 A2984 RMK A01 T00940078  RH  090%=      5-min Rain = 0
KQU1 190448Z 21004KT 09/08 A2984 RMK A01 T00940078  RH  090%=      5-min Rain = 0
KQU1 190449Z 21004KT 09/08 A2984 RMK A01 T00940078  RH  090%=      5-min Rain = 0
KQU1 190450Z 21004KT 09/08 A2984 RMK A01 T00940078  RH  089%=      5-min Rain = 0
KQU1 190451Z 21004KT 10/08 A2984 RMK A01 T00950078  RH  089%=      5-min Rain = 0
KQU1 190452Z 21004KT 10/08 A2984 RMK A01 T00950077  RH  089%=      5-min Rain = 0
KQU1 190453Z 20004KT 10/08 A2984 RMK A01 T00950078  RH  089%=      5-min Rain = 0
KQU1 190454Z 20004KT 10/08 A2984 RMK A01 T00950077  RH  089%=      5-min Rain = 0
KQU1 190455Z 21004KT 10/08 A2984 RMK A01 T00950077  RH  089%=      5-min Rain = 0
KQU1 190456Z 21004KT 10/08 A2984 RMK A01 T00950077  RH  089%=      5-min Rain = 0
KQU1 190457Z 21004KT 10/08 A2984 RMK A01 T00950077  RH  088%=      5-min Rain = 0
KQU1 190458Z 22004KT 10/08 A2984 RMK A01 T00950077  RH  088%=      5-min Rain = 0
KQU1 190459Z 21004KT 10/08 A2984 RMK A01 T00950077  RH  088%=      5-min Rain = 0
KQU1 190500Z 22004KT 10/08 A2984 RMK A01 T00950077  RH  089%=      5-min Rain = 0
KQU1 190501Z 22005KT 10/08 A2984 RMK A01 T00950077  RH  089%=      5-min Rain = 0
KQU1 190502Z 22005KT 10/08 A2984 RMK A01 T00960077  RH  088%=      5-min Rain = 0
KQU1 190503Z 22005KT 10/08 A2984 RMK A01 T00960077  RH  088%=      5-min Rain = 0
KQU1 190504Z 23004KT 10/08 A2984 RMK A01 T00960078  RH  088%=      5-min Rain = 0
KQU1 190505Z 22004KT 10/08 A2984 RMK A01 T00960078  RH  088%=      5-min Rain = 0
KQU1 190506Z 23004KT 10/08 A2984 RMK A01 T00960078  RH  088%=      5-min Rain = 0
KQU1 190507Z 23005KT 10/08 A2984 RMK A01 T00960078  RH  088%=      5-min Rain = 0
KQU1 190508Z 23005KT 10/08 A2984 RMK A01 T00960078  RH  088%=      5-min Rain = 0
KQU1 190509Z 22005KT 10/08 A2984 RMK A01 T00960077  RH  088%=      5-min Rain = 0
KQU1 190510Z 22004KT 10/08 A2984 RMK A01 T00960077  RH  088%=      5-min Rain = 0
KQU1 190511Z 22004KT 10/08 A2984 RMK A01 T00960077  RH  088%=      5-min Rain = 0
KQU1 190512Z 22004KT 10/08 A2984 RMK A01 T00960077  RH  088%=      5-min Rain = 0
KQU1 190513Z 22004KT 10/08 A2984 RMK A01 T00950076  RH  088%=      5-min Rain = 0
KQU1 190514Z 22004KT 10/08 A2984 RMK A01 T00950076  RH  088%=      5-min Rain = 0
KQU1 190515Z 22004KT 10/08 A2984 RMK A01 T00960077  RH  088%=      5-min Rain = 0
KQU1 190516Z 22004KT 10/08 A2984 RMK A01 T00960077  RH  088%=      5-min Rain = 0
KQU1 190517Z 22005KT 10/08 A2984 RMK A01 T00960077  RH  088%=      5-min Rain = 0
KQU1 190518Z 22005KT 10/08 A2984 RMK A01 T00960077  RH  088%=      5-min Rain = 0
KQU1 190519Z 22005KT 10/08 A2984 RMK A01 T00970078  RH  088%=      5-min Rain = 0
KQU1 190520Z 22005KT 10/08 A2984 RMK A01 T00970078  RH  088%=      5-min Rain = 0
KQU1 190521Z 22005KT 10/08 A2984 RMK A01 T00970077  RH  087%=      5-min Rain = 0
KQU1 190522Z 22004KT 10/08 A2984 RMK A01 T00970078  RH  087%=      5-min Rain = 0
KQU1 190523Z 22005KT 10/08 A2984 RMK A01 T00970077  RH  087%=      5-min Rain = 0
KQU1 190524Z 21005KT 10/08 A2984 RMK A01 T00970077  RH  087%=      5-min Rain = 0
KQU1 190525Z 21004KT 10/08 A2984 RMK A01 T00970077  RH  087%=      5-min Rain = 0
KQU1 190526Z 20004KT 10/08 A2984 RMK A01 T00960076  RH  087%=      5-min Rain = 0
KQU1 190527Z 20005KT 10/08 A2985 RMK A01 T00960076  RH  087%=      5-min Rain = 0
KQU1 190528Z 19005KT 10/08 A2985 RMK A01 T00950076  RH  088%=      5-min Rain = 0
KQU1 190529Z 20005KT 10/08 A2985 RMK A01 T00960077  RH  088%=      5-min Rain = 0
KQU1 190530Z 19005KT 10/08 A2984 RMK A01 T00960077  RH  088%=      5-min Rain = 0
KQU1 190531Z 20005KT 10/08 A2984 RMK A01 T00970078  RH  088%=      5-min Rain = 0
KQU1 190532Z 20005KT 10/08 A2984 RMK A01 T00980079  RH  088%=      5-min Rain = 0
KQU1 190533Z 20004KT 10/08 A2984 RMK A01 T00990078  RH  087%=      5-min Rain = 0
KQU1 190534Z 19005KT 10/08 A2984 RMK A01 T00990078  RH  087%=      5-min Rain = 0
KQU1 190535Z 20004KT 10/08 A2984 RMK A01 T01000078  RH  086%=      5-min Rain = 0
KQU1 190536Z 19004KT 10/08 A2984 RMK A01 T00990077  RH  086%=      5-min Rain = 0
KQU1 190537Z 18004KT 10/08 A2984 RMK A01 T00990078  RH  087%=      5-min Rain = 0
KQU1 190538Z 18005KT 10/08 A2984 RMK A01 T00990077  RH  086%=      5-min Rain = 0
KQU1 190539Z 18004KT 10/08 A2984 RMK A01 T00980076  RH  086%=      5-min Rain = 0
KQU1 190540Z 18004KT 10/08 A2984 RMK A01 T00980077  RH  087%=      5-min Rain = 0
KQU1 190541Z 19004KT 10/08 A2984 RMK A01 T00990078  RH  087%=      5-min Rain = 0
KQU1 190542Z 19004KT 10/08 A2984 RMK A01 T00990078  RH  086%=      5-min Rain = 0
KQU1 190543Z 18004KT 10/08 A2984 RMK A01 T00990077  RH  086%=      5-min Rain = 0
KQU1 190544Z 18004KT 10/08 A2984 RMK A01 T00990077  RH  086%=      5-min Rain = 0
KQU1 190545Z 18005KT 10/08 A2984 RMK A01 T01000078  RH  086%=      5-min Rain = 0
KQU1 190546Z 18005KT 10/08 A2984 RMK A01 T01000078  RH  086%=      5-min Rain = 0
KQU1 190547Z 18005KT 10/08 A2984 RMK A01 T01000078  RH  086%=      5-min Rain = 0
KQU1 190548Z 19005KT 10/08 A2984 RMK A01 T01010078  RH  086%=      5-min Rain = 0
KQU1 190549Z 19005KT 10/08 A2985 RMK A01 T01000077  RH  086%=      5-min Rain = 0
KQU1 190550Z 19005KT 10/08 A2985 RMK A01 T01000078  RH  086%=      5-min Rain = 0
KQU1 190551Z 19005KT 10/08 A2985 RMK A01 T01000078  RH  086%=      5-min Rain = 0
KQU1 190552Z 19005KT 10/08 A2985 RMK A01 T01000078  RH  086%=      5-min Rain = 0
KQU1 190553Z 19005KT 10/08 A2985 RMK A01 T01000077  RH  086%=      5-min Rain = 0
KQU1 190554Z 19005KT 10/08 A2985 RMK A01 T00990077  RH  086%=      5-min Rain = 0
KQU1 190555Z 19005KT 10/08 A2985 RMK A01 T00990077  RH  087%=      5-min Rain = 0
KQU1 190556Z 19005KT 10/08 A2985 RMK A01 T00980077  RH  087%=      5-min Rain = 0
KQU1 190557Z 19006KT 10/08 A2985 RMK A01 T00980077  RH  087%=      5-min Rain = 0
KQU1 190558Z 19005KT 10/08 A2985 RMK A01 T00980077  RH  087%=      5-min Rain = 0
KQU1 190559Z 20005KT 10/08 A2985 RMK A01 T00980078  RH  087%=      5-min Rain = 0
KQU1 190600Z 20005KT 10/08 A2985 RMK A01 T00980078  RH  087%=      5-min Rain = 0

Page generated in 0.0588 seconds.